W4HSV Weather Reports


time (UTC)temp
C
wind
direction
speed
KPH
gust
KPH
rain 1hr
cm
rain 24hr
cm
rain mn
cm
humidity
%
barometer
mb
20260506192228 17 355 0.0 4.8 0.23 3.56 3.56 96 1011.7
20260506192136 17 355 0.0 4.8 0.23 3.56 3.56 95 1011.7
20260506192106 17 355 0.0 12.9 0.20 3.53 3.53 95 1011.7
20260506191821 17 355 1.6 12.9 0.20 3.53 3.53 95 1011.8
20260506191730 17 355 3.2 12.9 0.18 3.51 3.51 95 1011.8
20260506191616 17 355 1.6 12.9 0.20 3.51 3.51 95 1011.9
20260506191524 17 304 1.6 12.9 0.20 3.51 3.51 95 1011.9
20260506191412 17 304 4.8 12.9 0.20 3.51 3.51 95 1011.9
20260506191319 17 295 6.4 12.9 0.25 3.51 3.51 95 1011.9
20260506191210 17 320 3.2 12.9 0.28 3.51 3.51 95 1011.9
20260506191118 17 275 1.6 9.7 0.30 3.51 3.51 95 1012.1
20260506191025 17 306 0.0 8.0 0.28 3.48 3.48 95 1012.1
20260506190911 17 5 0.0 8.0 0.36 3.48 3.48 95 1012.0
20260506190820 17 346 0.0 8.0 0.36 3.48 3.48 95 1012.0
20260506190712 17 346 1.6 8.0 0.38 3.45 3.45 95 1012.0
20260506190619 17 346 3.2 8.0 0.46 3.45 3.45 95 1012.1
20260506190548 17 346 4.8 8.0 0.43 3.43 3.43 95 1012.1
20260506190322 17 314 4.8 8.0 0.53 3.43 3.43 95 1012.0
20260506190214 17 336 4.8 8.0 0.51 3.40 3.40 95 1012.1
20260506190123 17 304 4.8 6.4 0.51 3.40 3.40 95 1012.1
20260506190050 17 355 4.8 6.4 0.48 3.38 3.38 95 1012.2
20260506185916 17 304 4.8 6.4 0.48 3.38 3.38 95 1012.3
20260506185824 17 329 3.2 4.8 0.48 3.38 3.38 95 1012.3
20260506185732 17 319 3.2 4.8 0.51 3.38 3.38 95 1012.3
20260506185618 17 321 1.6 4.8 0.51 3.38 3.38 95 1012.3
20260506185530 17 343 1.6 4.8 0.51 3.38 3.38 95 1012.3
20260506185416 17 330 0.0 4.8 0.51 3.38 3.38 95 1012.2
20260506185324 17 330 0.0 4.8 0.51 3.38 3.38 95 1012.2
20260506185212 17 257 1.6 4.8 0.51 3.38 3.38 95 1012.3
20260506185139 17 257 1.6 4.8 0.51 3.38 3.38 95 1012.3
20260506185113 17 257 1.6 4.8 0.48 3.35 3.35 95 1012.3
20260506184826 17 286 3.2 4.8 0.48 3.35 3.35 95 1012.3
20260506184714 17 238 3.2 4.8 0.48 3.35 3.35 95 1012.2
20260506184621 17 203 3.2 4.8 0.48 3.35 3.35 95 1012.2
20260506184528 17 217 3.2 4.8 0.48 3.35 3.35 95 1012.1
20260506184420 17 220 3.2 4.8 0.51 3.35 3.35 95 1012.0
20260506184327 17 222 1.6 4.8 0.51 3.35 3.35 95 1012.0
20260506184214 17 263 1.6 4.8 0.51 3.35 3.35 95 1012.0
20260506184121 17 284 0.0 4.8 0.51 3.35 3.35 95 1012.0
20260506184029 17 284 0.0 4.8 0.51 3.35 3.35 95 1012.0
20260506183920 17 284 0.0 4.8 0.51 3.35 3.35 95 1011.9
20260506183827 17 284 0.0 11.3 0.51 3.35 3.35 95 1011.9
20260506183715 17 294 1.6 11.3 0.53 3.35 3.35 95 1011.9
20260506183643 17 294 1.6 11.3 0.53 3.35 3.35 95 1011.9
20260506183613 17 294 3.2 11.3 0.53 3.35 3.35 95 1011.9
20260506183330 17 311 1.6 11.3 0.53 3.35 3.35 95 1012.0
20260506183216 17 320 3.2 11.3 0.58 3.35 3.35 95 1012.0
20260506183125 17 282 4.8 11.3 0.58 3.35 3.35 95 1012.0
20260506183032 17 286 4.8 11.3 0.61 3.35 3.35 95 1012.1
20260506182918 17 280 3.2 9.7 0.58 3.33 3.35 95 1012.1
20260506182825 17 249 3.2 9.7 0.58 3.33 3.33 95 1012.1
20260506182736 17 264 3.2 9.7 0.64 3.33 3.33 95 1012.2
20260506182623 17 282 3.2 9.7 0.64 3.33 3.33 95 1012.2
20260506182510 17 290 1.6 9.7 0.66 3.33 3.33 95 1012.3
20260506182418 17 301 3.2 9.7 0.71 3.33 3.33 95 1012.4
20260506182346 17 315 3.2 9.7 0.71 3.33 3.33 95 1012.4
20260506182211 17 311 4.8 11.3 0.79 3.33 3.33 95 1012.4
20260506182123 17 266 4.8 11.3 0.79 3.33 3.33 95 1012.4
20260506182055 17 263 4.8 16.1 0.81 3.33 3.33 95 1012.5
20260506181828 17 290 3.2 16.1 1.04 3.33 3.33 94 1012.2
20260506181735 17 233 3.2 16.1 1.37 3.33 3.33 94 1012.4
20260506181623 17 249 4.8 16.1 1.35 3.30 3.30 94 1012.4
20260506181514 17 312 4.8 16.1 1.50 3.30 3.30 94 1012.8
20260506181422 17 305 8.0 16.1 1.50 3.30 3.30 94 1012.8
20260506181310 17 300 9.7 19.3 1.47 3.25 3.25 94 1012.7
20260506181217 17 277 11.3 19.3 1.47 3.23 3.23 94 1012.8
20260506181124 17 279 8.0 19.3 1.45 3.20 3.20 94 1012.8
20260506181014 17 281 6.4 19.3 1.45 3.15 3.15 94 1012.7
20260506180941 17 244 6.4 19.3 1.42 3.12 3.12 94 1012.7
20260506180848 17 286 6.4 19.3 1.45 3.12 3.12 94 1012.8
20260506180715 17 343 8.0 19.3 1.47 3.07 3.07 94 1013.1
20260506180623 17 312 9.7 19.3 1.40 3.00 3.00 94 1013.1
20260506180554 17 234 9.7 16.1 1.32 2.92 2.92 94 1013.3
20260506180312 17 304 8.0 16.1 1.30 2.90 2.90 94 1013.4
20260506180219 17 298 6.4 14.5 1.30 2.90 2.90 94 1013.2
20260506180126 17 263 4.8 12.9 1.30 2.90 2.90 94 1013.2
20260506180013 17 252 4.8 12.9 1.30 2.90 2.90 93 1013.0
20260506175919 17 233 4.8 12.9 1.30 2.90 2.90 93 1013.0
20260506175810 17 202 4.8 12.9 1.27 2.87 2.87 93 1012.9
20260506175718 17 220 6.4 12.9 1.27 2.87 2.87 93 1012.9
20260506175625 17 213 6.4 12.9 1.27 2.87 2.87 93 1012.9
20260506175512 17 232 6.4 11.3 1.27 2.87 2.87 93 1012.8
20260506175439 17 207 6.4 12.9 1.27 2.87 2.87 93 1012.6
20260506175325 17 195 6.4 12.9 1.27 2.87 2.87 93 1012.6
20260506175218 17 218 4.8 12.9 1.27 2.87 2.87 93 1012.3
20260506175124 17 202 3.2 12.9 1.27 2.87 2.87 93 1012.3
20260506175055 17 215 4.8 12.9 1.27 2.87 2.87 93 1012.4
20260506174848 18 189 6.4 12.9 1.27 2.87 2.87 92 1012.2
20260506174714 18 210 6.4 12.9 1.27 2.87 2.87 92 1012.2
20260506174626 18 200 4.8 12.9 1.27 2.87 2.87 92 1012.2
20260506174512 18 214 6.4 14.5 1.27 2.87 2.87 92 1012.2
20260506174420 18 223 6.4 14.5 1.24 2.84 2.84 92 1012.2
20260506174328 18 198 6.4 14.5 1.24 2.84 2.84 92 1012.2
20260506174217 18 215 3.2 14.5 1.24 2.84 2.84 92 1012.2
20260506174123 18 200 3.2 14.5 1.24 2.84 2.84 92 1012.2
20260506174014 18 159 4.8 14.5 1.24 2.84 2.84 92 1012.2
20260506173922 18 204 4.8 14.5 1.24 2.84 2.84 91 1012.2
20260506173830 18 190 4.8 14.5 1.22 2.82 2.82 91 1012.4
20260506173718 18 219 4.8 14.5 1.22 2.82 2.82 91 1012.6
20260506173625 18 204 4.8 20.9 1.22 2.82 2.82 91 1012.6
20260506173559 18 199 3.2 20.9 1.22 2.82 2.82 91 1012.8
20260506173312 18 220 8.0 20.9 1.17 2.77 2.77 90 1013.2
20260506173240 18 207 9.7 20.9 1.17 2.77 2.77 90 1013.0
20260506173127 18 263 8.0 20.9 1.17 2.77 2.77 90 1013.0
20260506173014 19 312 6.4 20.9 1.14 2.74 2.74 89 1012.8
20260506172945 19 284 8.0 20.9 1.14 2.74 2.74 89 1012.8
20260506172811 19 308 11.3 20.9 1.12 2.72 2.72 89 1012.9
20260506172739 19 290 11.3 22.5 1.09 2.69 2.69 88 1012.9
20260506172626 19 303 9.7 27.4 1.07 2.67 2.67 89 1012.9
20260506172513 20 317 8.0 33.8 1.07 2.67 2.67 89 1013.0
20260506172440 20 355 8.0 33.8 1.02 2.62 2.62 90 1013.0
20260506172311 20 324 9.7 33.8 0.97 2.57 2.57 91 1013.2
20260506172219 20 302 14.5 33.8 0.94 2.54 2.54 90 1013.2
20260506172126 20 311 17.7 33.8 0.91 2.51 2.51 90 1013.2
20260506172055 20 338 20.9 33.8 0.74 2.34 2.34 90 1013.2
20260506171828 21 290 19.3 33.8 0.58 2.18 2.18 91 1013.5
20260506171721 21 305 14.5 33.8 0.36 1.96 1.96 91 1013.4
20260506171627 21 298 8.0 17.7 0.25 1.85 1.85 91 1013.4
20260506171516 21 280 6.4 14.5 0.20 1.80 1.80 91 1013.0
20260506171423 21 337 4.8 14.5 0.20 1.80 1.80 91 1013.0
20260506171329 21 294 3.2 14.5 0.18 1.78 1.78 91 1012.9
20260506171221 21 303 3.2 14.5 0.15 1.75 1.75 91 1012.8
20260506171129 21 292 3.2 16.1 0.13 1.73 1.73 91 1012.8
20260506171017 21 313 3.2 16.1 0.10 1.70 1.70 90 1012.6
20260506170944 21 253 1.6 16.1 0.08 1.68 1.68 91 1012.6
20260506170812 21 243 1.6 16.1 0.05 1.65 1.65 90 1012.4
20260506170720 21 211 1.6 16.1 0.00 1.60 1.60 90 1012.4
20260506170647 21 252 3.2 16.1 0.00 1.60 1.60 90 1012.4
20260506170601 21 215 4.8 16.1 0.00 1.60 1.60 90 1012.4
20260506170315 21 200 8.0 16.1 0.00 1.60 1.60 89 1012.5
20260506170243 21 210 6.4 16.1 0.00 1.60 1.60 89 1012.5
20260506170110 21 179 4.8 12.9 0.00 1.60 1.60 89 1012.3
20260506170020 21 194 6.4 14.5 0.00 1.60 1.60 89 1012.3
20260506165948 21 216 6.4 16.1 0.00 1.60 1.60 89 1012.3
20260506165834 21 201 8.0 17.7 0.00 1.60 1.60 89 1012.2
20260506165721 21 205 8.0 17.7 0.00 1.60 1.60 89 1012.2
20260506165627 21 219 8.0 17.7 0.00 1.60 1.60 89 1012.2
20260506165514 21 210 9.7 17.7 0.00 1.60 1.60 89 1012.2
20260506165442 21 223 9.7 27.4 0.00 1.60 1.60 89 1012.2
20260506165313 21 198 11.3 27.4 0.00 1.60 1.60 89 1012.1
20260506165221 21 192 11.3 27.4 0.00 1.60 1.60 89 1012.1
20260506165148 21 220 11.3 27.4 0.00 1.60 1.60 89 1012.2
20260506165119 21 165 9.7 27.4 0.00 1.60 1.60 89 1012.2
20260506164811 21 221 9.7 27.4 0.00 1.60 1.60 89 1012.3
20260506164722 21 184 12.9 27.4 0.00 1.60 1.60 89 1012.3
20260506164610 21 180 11.3 27.4 0.00 1.60 1.60 89 1012.2
20260506164518 21 206 11.3 24.1 0.00 1.60 1.60 89 1012.1
20260506164445 21 187 14.5 24.1 0.00 1.60 1.60 88 1012.1
20260506164312 21 194 14.5 24.1 0.00 1.60 1.60 88 1011.9
20260506164219 21 234 12.9 24.1 0.00 1.60 1.60 89 1011.9
20260506164129 21 202 9.7 24.1 0.00 1.60 1.60 88 1011.9
20260506164018 21 212 11.3 27.4 0.00 1.60 1.60 88 1011.9
20260506163925 21 215 11.3 27.4 0.00 1.60 1.60 88 1011.9
20260506163812 21 207 9.7 27.4 0.00 1.60 1.60 88 1011.9
20260506163720 21 188 11.3 27.4 0.00 1.60 1.60 88 1011.9
20260506163632 21 174 11.3 27.4 0.00 1.60 1.60 88 1011.9
20260506163602 21 171 14.5 27.4 0.00 1.60 1.60 88 1011.9
20260506163315 21 211 12.9 27.4 0.00 1.60 1.60 89 1011.9
20260506163224 21 183 11.3 27.4 0.00 1.60 1.60 89 1011.9
20260506163114 21 219 9.7 22.5 0.00 1.60 1.60 89 1011.8
20260506163023 21 238 9.7 22.5 0.00 1.60 1.60 88 1011.8
20260506162928 21 200 9.7 22.5 0.00 1.60 1.60 89 1011.8
20260506162815 21 197 14.5 25.7 0.00 1.60 1.60 88 1011.9
20260506162722 21 211 14.5 25.7 0.00 1.60 1.60 88 1011.9
20260506162630 21 192 14.5 25.7 0.00 1.60 1.60 89 1011.8
20260506162521 21 178 12.9 25.7 0.00 1.60 1.60 89 1011.7
20260506162430 21 205 11.3 25.7 0.00 1.60 1.60 89 1011.7
20260506162316 21 180 11.3 25.7 0.00 1.60 1.60 89 1011.6
20260506162244 21 174 12.9 25.7 0.00 1.60 1.60 89 1011.6
20260506162110 21 190 12.9 24.1 0.00 1.60 1.60 89 1011.6
20260506162044 21 196 14.5 24.1 0.00 1.60 1.60 89 1011.6
20260506161818 21 240 14.5 20.9 0.00 1.60 1.60 89 1011.7
20260506161726 21 212 14.5 22.5 0.00 1.60 1.60 89 1011.7
20260506161612 21 236 12.9 22.5 0.00 1.60 1.60 89 1011.7
20260506161521 21 201 12.9 24.1 0.00 1.60 1.60 89 1011.7
20260506161413 21 178 12.9 24.1 0.00 1.60 1.60 89 1011.6
20260506161319 21 187 12.9 25.7 0.00 1.60 1.60 89 1011.6
20260506161227 21 180 12.9 25.7 0.00 1.60 1.60 89 1011.6
20260506161135 21 231 9.7 25.7 0.00 1.60 1.60 89 1011.6
20260506161021 21 218 11.3 25.7 0.00 1.60 1.60 90 1011.6
20260506160928 21 194 11.3 25.7 0.00 1.60 1.60 90 1011.7
20260506160820 21 182 14.5 25.7 0.00 1.60 1.60 89 1011.8
20260506160728 21 198 16.1 25.7 0.00 1.60 1.60 89 1011.8
20260506160615 21 211 11.3 24.1 0.00 1.60 1.60 90 1011.8
20260506160545 21 172 9.7 24.1 0.00 1.60 1.60 90 1011.8
20260506160323 21 180 8.0 17.7 0.00 1.60 1.60 90 1011.8
20260506160230 21 181 9.7 27.4 0.00 1.60 1.60 90 1011.7
20260506160117 21 293 9.7 27.4 0.00 1.60 1.60 90 1011.6
20260506160025 21 217 11.3 27.4 0.00 1.60 1.60 90 1011.6
20260506155913 21 207 12.9 27.4 0.00 1.60 1.60 90 1011.6
20260506155841 21 184 9.7 27.4 0.00 1.60 1.60 91 1011.7
20260506155711 21 262 8.0 27.4 0.00 1.60 1.60 91 1011.7
20260506155617 21 207 8.0 27.4 0.00 1.60 1.60 90 1011.7
20260506155525 21 182 12.9 27.4 0.00 1.60 1.60 90 1011.7
20260506155412 21 184 14.5 27.4 0.00 1.60 1.60 90 1011.7
20260506155340 21 193 17.7 27.4 0.00 1.60 1.60 90 1011.8
20260506155227 21 163 16.1 27.4 0.00 1.60 1.60 90 1011.8
20260506155118 21 159 14.5 20.9 0.00 1.60 1.60 91 1011.9
20260506155049 21 175 12.9 19.3 0.00 1.60 1.60 91 1011.9
20260506154822 21 227 11.3 20.9 0.00 1.60 1.60 91 1011.7
20260506154730 21 210 11.3 19.3 0.00 1.60 1.60 91 1011.7
20260506154617 21 176 9.7 19.3 0.00 1.60 1.60 91 1011.7
20260506154529 21 215 9.7 19.3 0.00 1.60 1.60 91 1011.7
20260506154416 21 190 9.7 24.1 0.00 1.60 1.60 91 1011.7
20260506154321 21 173 11.3 24.1 0.00 1.60 1.60 92 1011.7
20260506154250 21 207 12.9 24.1 0.00 1.60 1.60 92 1011.7
20260506154115 21 176 11.3 24.1 0.00 1.60 1.60 92 1011.6
20260506154023 21 191 12.9 24.1 0.00 1.60 1.60 92 1011.6
20260506153915 20 176 12.9 24.1 0.00 1.60 1.60 92 1011.6
20260506153823 20 201 11.3 24.1 0.00 1.60 1.60 92 1011.6
20260506153711 20 219 12.9 24.1 0.00 1.60 1.60 92 1011.5
20260506153619 20 189 14.5 22.5 0.00 1.60 1.60 92 1011.6
20260506153554 20 202 16.1 22.5 0.00 1.60 1.60 92 1011.6
20260506153327 20 229 16.1 22.5 0.00 1.60 1.60 92 1011.7
20260506153213 20 214 12.9 24.1 0.00 1.60 1.60 92 1011.7
20260506153121 20 195 12.9 22.5 0.00 1.60 1.60 92 1011.7
20260506153028 20 231 12.9 20.9 0.00 1.60 1.60 92 1011.7
20260506152915 20 225 9.7 17.7 0.00 1.60 1.60 93 1011.7
20260506152847 20 194 9.7 17.7 0.00 1.60 1.60 93 1011.7
20260506152713 20 229 9.7 17.7 0.00 1.60 1.60 93 1011.7
20260506152621 20 178 11.3 17.7 0.00 1.60 1.60 93 1011.7
20260506152528 20 195 11.3 27.4 0.00 1.60 1.60 93 1011.7
20260506152415 20 194 12.9 27.4 0.00 1.60 1.60 93 1011.7
20260506152323 20 187 14.5 27.4 0.00 1.60 1.60 93 1011.7
20260506152214 20 200 11.3 27.4 0.00 1.60 1.60 94 1011.6
20260506152122 20 192 11.3 27.4 0.00 1.60 1.60 94 1011.6
20260506152052 20 144 12.9 27.4 0.00 1.60 1.60 94 1011.6
20260506151826 20 165 16.1 27.4 0.00 1.60 1.60 93 1011.6
20260506151718 20 196 17.7 29.0 0.00 1.60 1.60 93 1011.6
20260506151646 20 178 12.9 27.4 0.00 1.60 1.60 94 1011.6
20260506151512 20 192 14.5 27.4 0.00 1.60 1.60 94 1011.4
20260506151418 20 204 16.1 27.4 0.00 1.60 1.60 93 1011.4
20260506151326 20 223 14.5 25.7 0.00 1.60 1.60 94 1011.4
20260506151213 20 257 11.3 25.7 0.00 1.60 1.60 94 1011.3
20260506151140 20 159 11.3 25.7 0.00 1.60 1.60 94 1011.3
20260506151032 20 217 16.1 25.7 0.00 1.60 1.60 94 1011.3
20260506150920 20 171 16.1 25.7 0.00 1.60 1.60 95 1011.3
20260506150827 20 185 14.5 22.5 0.00 1.60 1.60 95 1011.3
20260506150734 20 157 11.3 22.5 0.00 1.60 1.60 95 1011.1
20260506150621 20 176 9.7 22.5 0.00 1.60 1.60 95 1011.1
20260506150555 20 200 11.3 22.5 0.00 1.60 1.60 95 1011.2
20260506150329 20 143 12.9 22.5 0.00 1.60 1.60 95 1011.2
20260506150216 20 184 12.9 27.4 0.00 1.60 1.60 95 1011.3
20260506150123 20 153 12.9 27.4 0.00 1.60 1.60 95 1011.3
20260506150010 20 134 12.9 27.4 0.00 1.60 1.60 95 1011.3
20260506145922 20 207 12.9 27.4 0.00 1.60 1.60 95 1011.3
20260506145850 20 177 11.3 27.4 0.00 1.60 1.60 95 1011.3
20260506145718 19 175 9.7 27.4 0.00 1.60 1.60 95 1011.6
20260506145625 19 161 11.3 27.4 0.00 1.60 1.60 95 1011.6
20260506145513 19 196 14.5 27.4 0.00 1.60 1.60 95 1011.5
20260506145421 19 228 12.9 25.7 0.00 1.60 1.60 95 1011.5
20260506145312 19 189 9.7 16.1 0.00 1.60 1.60 95 1011.6
20260506145221 19 173 8.0 17.7 0.00 1.60 1.60 95 1011.6
20260506145148 19 190 6.4 17.7 0.00 1.60 1.60 95 1011.4
20260506145059 19 167 8.0 17.7 0.00 1.60 1.60 95 1011.4
20260506144813 19 144 11.3 17.7 0.00 1.60 1.60 94 1011.4
20260506144744 19 225 11.3 17.7 0.00 1.60 1.60 95 1011.4
20260506144629 19 142 11.3 17.7 0.00 1.60 1.60 95 1011.2
20260506144536 19 161 11.3 16.1 0.00 1.60 1.60 95 1011.3
20260506144422 19 151 11.3 16.1 0.00 1.60 1.60 95 1011.3
20260506144330 19 143 9.7 16.1 0.00 1.60 1.60 95 1011.4
20260506144217 19 166 9.7 16.1 0.00 1.60 1.60 95 1011.7
20260506144110 19 146 9.7 20.9 0.00 1.60 1.60 95 1011.8
20260506144019 19 185 9.7 20.9 0.00 1.60 1.60 95 1011.7
20260506143926 19 149 8.0 20.9 0.00 1.60 1.60 95 1011.7
20260506143814 19 138 8.0 20.9 0.03 1.60 1.60 95 1011.7
20260506143722 19 196 9.7 20.9 0.03 1.60 1.60 95 1011.7
20260506143629 19 186 9.7 20.9 0.03 1.60 1.60 95 1011.7
20260506143545 19 182 9.7 20.9 0.05 1.60 1.60 96 1011.7
20260506143318 19 106 12.9 22.5 0.08 1.60 1.60 96 1011.7
20260506143225 19 178 12.9 22.5 0.08 1.60 1.60 96 1011.7
20260506143112 19 182 8.0 19.3 0.13 1.60 1.60 96 1011.6
20260506143025 19 103 9.7 19.3 0.13 1.60 1.60 95 1011.6
20260506142933 18 198 11.3 19.3 0.18 1.60 1.60 95 1011.6
20260506142819 18 175 11.3 19.3 0.18 1.60 1.60 95 1011.7
20260506142727 18 178 9.7 17.7 0.18 1.60 1.60 95 1011.7
20260506142614 18 201 8.0 16.1 0.25 1.60 1.60 95 1011.7
20260506142542 18 99 8.0 16.1 0.25 1.60 1.60 95 1011.7
20260506142413 18 178 8.0 17.7 0.30 1.60 1.60 95 1011.8
20260506142339 18 135 9.7 17.7 0.33 1.60 1.60 95 1011.8
20260506142226 18 142 9.7 17.7 0.33 1.60 1.60 95 1011.8
20260506142134 18 157 11.3 17.7 0.36 1.60 1.60 95 1011.8
20260506142104 18 167 11.3 17.7 0.38 1.60 1.60 95 1011.9
20260506141821 18 179 11.3 17.7 0.66 1.60 1.60 95 1012.0
20260506141728 18 167 11.3 17.7 0.74 1.60 1.60 95 1012.0
20260506141615 18 170 11.3 19.3 0.74 1.60 1.60 95 1012.1
20260506141523 18 184 8.0 19.3 0.74 1.60 1.60 95 1012.1
20260506141411 18 212 9.7 19.3 0.74 1.60 1.60 95 1012.0
20260506141317 18 156 11.3 19.3 0.76 1.60 1.60 95 1011.9
20260506141229 18 204 11.3 19.3 0.76 1.60 1.60 95 1011.9
20260506141136 18 217 11.3 19.3 0.79 1.60 1.60 95 1011.8
20260506141023 18 165 11.3 19.3 0.79 1.60 1.60 94 1011.8
20260506140910 18 199 11.3 19.3 0.91 1.60 1.60 94 1011.7
20260506140819 18 182 11.3 19.3 0.91 1.60 1.60 94 1011.7
20260506140710 18 176 9.7 17.7 1.32 1.60 1.60 94 1011.6
20260506140617 18 186 9.7 19.3 1.45 1.60 1.60 94 1011.6
20260506140547 18 157 9.7 19.3 1.45 1.60 1.60 94 1011.6
20260506140321 18 182 9.7 17.7 1.45 1.60 1.60 94 1011.8
20260506140229 18 170 9.7 17.7 1.47 1.60 1.60 94 1011.8
20260506140120 18 191 9.7 17.7 1.47 1.60 1.60 94 1011.8
20260506140027 18 166 11.3 17.7 1.47 1.60 1.60 94 1011.8
20260506135914 18 190 9.7 17.7 1.50 1.60 1.60 94 1011.9
20260506135822 18 186 8.0 17.7 1.50 1.60 1.60 95 1011.9
20260506135711 18 189 6.4 12.9 1.50 1.60 1.60 94 1011.8
20260506135622 18 217 4.8 9.7 1.50 1.60 1.60 94 1011.8
20260506135549 18 154 4.8 9.7 1.52 1.60 1.60 94 1011.7
20260506135417 18 218 4.8 9.7 1.52 1.60 1.60 94 1011.7
20260506135325 18 167 4.8 9.7 1.52 1.60 1.60 94 1011.7
20260506135213 18 198 4.8 11.3 1.52 1.60 1.60 94 1011.6
20260506135140 18 110 4.8 12.9 1.52 1.60 1.60 94 1011.6
20260506135053 18 186 4.8 12.9 1.55 1.60 1.60 94 1011.6
20260506134828 18 140 6.4 17.7 1.57 1.60 1.60 94 1011.3
20260506134716 18 107 6.4 17.7 1.57 1.60 1.60 94 1011.2
20260506134623 18 118 4.8 17.7 1.57 1.60 1.60 93 1011.2
20260506134510 18 158 6.4 17.7 1.60 1.60 1.60 93 1011.7
20260506134441 18 233 9.7 17.7 1.60 1.60 1.60 93 1012.0
20260506134328 18 211 11.3 17.7 1.60 1.60 1.60 93 1012.0
20260506134215 18 196 11.3 17.7 1.60 1.60 1.60 94 1012.1
20260506134123 18 216 11.3 17.7 1.60 1.60 1.60 94 1012.1
20260506134029 18 183 11.3 17.7 1.60 1.60 1.60 94 1012.1
20260506133917 18 202 9.7 14.5 1.57 1.57 1.57 94 1011.7
20260506133826 18 259 9.7 14.5 1.57 1.57 1.57 94 1011.7
20260506133715 18 155 8.0 16.1 1.57 1.57 1.57 94 1010.6
20260506133622 18 116 6.4 16.1 1.55 1.55 1.55 94 1010.6
20260506133553 19 134 4.8 16.1 1.55 1.55 1.55 94 1010.5
20260506133310 19 11 3.2 16.1 1.52 1.52 1.52 94 1011.8
20260506133238 19 85 1.6 16.1 1.50 1.50 1.50 94 1012.3
20260506133126 19 86 4.8 16.1 1.47 1.47 1.47 93 1012.3
20260506133013 19 188 9.7 16.1 1.45 1.45 1.45 94 1012.8
20260506132920 19 196 9.7 16.1 1.45 1.45 1.45 94 1012.8
20260506132829 19 171 9.7 14.5 1.42 1.42 1.42 94 1013.1
20260506132739 19 205 8.0 14.5 1.40 1.40 1.40 94 1013.3
20260506132626 19 213 6.4 14.5 1.35 1.35 1.37 93 1013.3
20260506132513 19 200 3.2 12.9 1.32 1.32 1.32 93 1013.2
20260506132421 19 227 3.2 9.7 1.30 1.30 1.30 93 1013.2
20260506132328 19 238 3.2 9.7 1.27 1.27 1.27 93 1013.1
20260506132216 19 331 3.2 9.7 1.24 1.24 1.24 93 1012.5
20260506132127 19 346 4.8 9.7 1.22 1.22 1.22 93 1012.5
20260506132058 19 9 4.8 14.5 0.99 0.99 0.99 93 1012.6
20260506131810 19 293 3.2 20.9 0.86 0.86 0.86 93 1013.8
20260506131737 19 237 3.2 20.9 0.86 0.86 0.86 92 1013.5
20260506131625 19 225 3.2 27.4 0.86 0.86 0.86 92 1013.5
20260506131536 19 232 3.2 27.4 0.86 0.86 0.86 92 1012.0
20260506131421 19 55 6.4 27.4 0.86 0.86 0.86 92 1012.0
20260506131328 19 32 6.4 27.4 0.84 0.84 0.84 91 1011.9
20260506131216 19 9 11.3 27.4 0.84 0.84 0.84 91 1012.7
20260506131124 19 302 12.9 27.4 0.81 0.81 0.81 91 1012.7
20260506131016 19 323 16.1 27.4 0.79 0.79 0.79 91 1013.0
20260506130925 19 344 16.1 27.4 0.69 0.69 0.69 91 1013.0
20260506130811 19 306 14.5 27.4 0.46 0.46 0.46 90 1013.4
20260506130719 19 317 9.7 25.7 0.28 0.28 0.28 90 1013.3
20260506130627 19 311 8.0 22.5 0.15 0.15 0.15 90 1013.3
20260506130601 20 310 8.0 22.5 0.15 0.15 0.15 90 1013.2
20260506130335 20 198 9.7 22.5 0.13 0.13 0.13 90 1012.0
20260506130222 20 192 12.9 22.5 0.13 0.13 0.13 89 1012.0
20260506130129 20 186 12.9 24.1 0.13 0.13 0.13 89 1011.8
20260506130017 20 190 12.9 24.1 0.10 0.10 0.10 89 1011.7
20260506125945 20 186 11.3 20.9 0.10 0.10 0.10 89 1011.7
20260506125815 20 214 12.9 20.9 0.10 0.10 0.10 89 1011.7
20260506125722 20 209 11.3 22.5 0.10 0.10 0.10 88 1011.7
20260506125630 20 211 9.7 22.5 0.10 0.10 0.10 88 1011.5
20260506125516 20 192 9.7 20.9 0.08 0.08 0.08 88 1011.6
20260506125424 20 223 9.7 19.3 0.08 0.08 0.08 88 1011.6
20260506125315 20 198 9.7 19.3 0.08 0.08 0.08 88 1011.7
20260506125222 20 227 9.7 24.1 0.08 0.08 0.08 87 1011.7
20260506125150 20 205 9.7 24.1 0.05 0.05 0.05 87 1011.6
20260506125120 20 211 9.7 24.1 0.03 0.03 0.03 87 1011.5
20260506124812 20 203 11.3 24.1 0.03 0.03 0.03 86 1011.5
20260506124724 20 196 12.9 24.1 0.03 0.03 0.03 86 1011.5
20260506124612 20 234 14.5 24.1 0.00 0.00 0.00 86 1011.7
20260506124520 20 203 14.5 24.1 0.00 0.00 0.00 86 1011.7
20260506124428 20 189 12.9 24.1 0.00 0.00 0.00 86 1011.7
20260506124315 20 200 11.3 25.7 0.00 0.00 0.00 85 1011.6
20260506124223 20 188 11.3 25.7 0.00 0.00 0.00 85 1011.6
20260506124136 20 153 11.3 25.7 0.00 0.00 0.00 85 1011.5
20260506124043 20 234 11.3 25.7 0.00 0.00 0.00 85 1011.5
20260506123929 20 247 9.7 25.7 0.00 0.00 0.00 85 1011.6
20260506123817 20 173 9.7 25.7 0.00 0.00 0.00 84 1011.4
20260506123724 20 212 11.3 25.7 0.00 0.00 0.00 84 1011.4
20260506123632 20 198 14.5 25.7 0.00 0.00 0.00 84 1011.4
20260506123608 20 142 16.1 25.7 0.00 0.00 0.00 84 1011.4
20260506123321 20 199 14.5 25.7 0.00 0.00 0.00 84 1011.4
20260506123229 20 184 14.5 25.7 0.00 0.00 0.00 84 1011.5
20260506123117 20 189 17.7 25.7 0.00 0.00 0.00 84 1011.3
20260506123025 20 215 16.1 22.5 0.00 0.00 0.00 84 1011.3
20260506122936 20 199 12.9 22.5 0.00 0.00 0.00 84 1011.4
20260506122823 20 279 11.3 22.5 0.00 0.00 0.00 84 1011.4
20260506122730 20 205 9.7 22.5 0.00 0.00 0.00 84 1011.4
20260506122617 20 193 12.9 22.5 0.00 0.00 0.00 83 1011.4
20260506122526 20 184 14.5 22.5 0.00 0.00 0.00 84 1011.4
20260506122433 20 200 14.5 22.5 0.00 0.00 0.00 83 1011.2
20260506122323 20 180 12.9 22.5 0.00 0.00 0.00 84 1011.2
20260506122250 20 180 12.9 22.5 0.00 0.00 0.00 83 1011.2
20260506122117 20 205 11.3 22.5 0.00 0.00 0.00 84 1011.1
20260506122047 20 208 12.9 22.5 0.00 0.00 0.00 84 1011.1
20260506121822 20 208 14.5 22.5 0.00 0.00 0.00 83 1011.1
20260506121714 20 211 14.5 22.5 0.00 0.00 0.00 83 1011.0
20260506121622 20 196 17.7 22.5 0.00 0.00 0.00 83 1011.0
20260506121529 20 243 17.7 25.7 0.00 0.00 0.00 83 1010.9
20260506121418 20 206 14.5 22.5 0.00 0.00 0.00 83 1010.7
20260506121326 20 215 12.9 22.5 0.00 0.00 0.00 83 1010.7
20260506121217 20 215 14.5 22.5 0.00 0.00 0.00 83 1010.7
20260506121125 20 217 14.5 19.3 0.00 0.00 0.00 83 1010.7
20260506121014 20 223 11.3 19.3 0.00 0.00 0.00 83 1010.7
20260506120920 20 170 9.7 20.9 0.00 0.00 0.00 83 1010.7
20260506120828 20 189 11.3 20.9 0.00 0.00 0.00 83 1010.6
20260506120717 20 149 11.3 20.9 0.00 0.00 0.00 83 1010.6
20260506120649 20 180 9.7 20.9 0.00 0.00 0.00 83 1010.6
20260506120558 20 173 9.7 20.9 0.00 0.00 0.00 83 1010.5
20260506120313 20 195 11.3 25.7 0.00 0.00 0.00 83 1010.5
20260506120221 20 190 14.5 25.7 0.00 0.00 0.00 83 1010.5
20260506120112 20 163 12.9 25.7 0.00 0.00 0.00 83 1010.6
20260506120040 20 206 11.3 25.7 0.00 0.00 0.00 83 1010.6
20260506115947 20 178 11.3 25.7 0.00 0.00 0.00 83 1010.5
20260506115814 20 157 12.9 25.7 0.00 0.00 0.00 83 1010.6
20260506115721 20 230 12.9 25.7 0.00 0.00 0.00 83 1010.6
20260506115628 20 223 16.1 25.7 0.00 0.00 0.00 83 1010.5
20260506115535 20 192 17.7 30.6 0.00 0.00 0.00 83 1010.5
20260506115427 20 183 14.5 30.6 0.00 0.00 0.00 83 1010.5
20260506115315 20 188 11.3 30.6 0.00 0.00 0.00 83 1010.6
20260506115222 20 178 11.3 30.6 0.00 0.00 0.00 83 1010.6
20260506115149 20 196 9.7 30.6 0.00 0.00 0.00 83 1010.5
20260506115100 20 165 9.7 30.6 0.00 0.00 0.00 83 1010.5
20260506114816 20 165 9.7 30.6 0.00 0.00 0.00 83 1010.5
20260506114723 20 200 14.5 30.6 0.00 0.00 0.00 83 1010.5
20260506114611 20 199 17.7 30.6 0.00 0.00 0.00 83 1010.5
20260506114519 20 221 16.1 25.7 0.00 0.00 0.00 83 1010.5
20260506114446 20 206 12.9 25.7 0.00 0.00 0.00 83 1010.5
20260506114312 20 216 16.1 25.7 0.00 0.00 0.00 83 1010.4
20260506114224 20 196 17.7 25.7 0.00 0.00 0.00 83 1010.4
20260506114111 20 223 14.5 25.7 0.00 0.00 0.00 82 1010.4
20260506114018 20 209 9.7 25.7 0.00 0.00 0.00 83 1010.3
20260506113926 20 219 11.3 25.7 0.00 0.00 0.00 83 1010.3
20260506113813 20 167 14.5 25.7 0.00 0.00 0.00 82 1010.2
20260506113724 20 186 12.9 25.7 0.00 0.00 0.00 82 1010.2
20260506113633 20 218 12.9 25.7 0.00 0.00 0.00 82 1010.2
20260506113602 20 183 11.3 22.5 0.00 0.00 0.00 82 1010.2
20260506113313 20 211 12.9 20.9 0.00 0.00 0.00 82 1010.1
20260506113240 20 184 12.9 20.9 0.00 0.00 0.00 82 1010.1
20260506113130 20 190 14.5 20.9 0.00 0.00 0.00 82 1010.1
20260506113018 20 202 11.3 20.9 0.00 0.00 0.00 82 1010.2
20260506112926 20 208 9.7 20.9 0.00 0.00 0.00 82 1010.2
20260506112815 20 205 9.7 20.9 0.00 0.00 0.00 82 1010.2
20260506112722 20 188 9.7 20.9 0.00 0.00 0.00 82 1010.2
20260506112613 20 186 11.3 20.9 0.00 0.00 0.00 82 1010.1
20260506112520 20 223 12.9 20.9 0.00 0.00 0.00 82 1010.1
20260506112428 20 188 16.1 27.4 0.00 0.00 0.00 82 1010.2
20260506112315 20 227 16.1 27.4 0.00 0.00 0.00 82 1010.0
20260506112224 20 186 11.3 27.4 0.00 0.00 0.00 82 1010.0
20260506112151 20 186 11.3 27.4 0.00 0.00 0.00 82 1010.0
20260506112125 20 194 9.7 27.4 0.00 0.00 0.00 82 1010.0
20260506111815 20 211 12.9 27.4 0.00 0.00 0.00 82 1009.8
20260506111743 20 167 12.9 27.4 0.00 0.00 0.00 82 1009.8
20260506111628 20 196 14.5 27.4 0.00 0.00 0.00 82 1009.8
20260506111514 20 196 11.3 25.7 0.00 0.00 0.00 82 1009.7
20260506111426 20 191 9.7 24.1 0.00 0.00 0.00 82 1009.7
20260506111333 20 226 9.7 24.1 0.00 0.00 0.00 82 1009.7
20260506111220 20 174 11.3 24.1 0.00 0.00 0.00 82 1009.7
20260506111127 20 177 12.9 24.1 0.00 0.00 0.00 82 1009.7
20260506111034 20 187 16.1 24.1 0.00 0.00 0.00 82 1009.7
20260506110941 20 197 17.7 30.6 0.00 0.00 0.00 82 1009.7
20260506110827 20 163 16.1 30.6 0.00 0.00 0.00 82 1009.8
20260506110739 20 194 14.5 30.6 0.00 0.00 0.00 81 1009.8
20260506110625 20 211 11.3 30.6 0.00 0.00 0.00 81 1009.8
20260506110555 20 200 11.3 30.6 0.00 0.00 0.00 81 1009.8
20260506110349 20 228 14.5 30.6 0.00 0.00 0.00 81 1009.8
20260506110214 20 223 16.1 30.6 0.00 0.00 0.00 81 1009.7
20260506110125 20 169 17.7 30.6 0.00 0.00 0.00 81 1009.7
20260506110012 20 159 12.9 24.1 0.00 0.00 0.00 81 1009.6
20260506105920 20 184 12.9 20.9 0.00 0.00 0.00 81 1009.6
20260506105827 20 178 12.9 20.9 0.00 0.00 0.00 81 1009.6
20260506105715 20 184 11.3 22.5 0.00 0.00 0.00 81 1009.7
20260506105621 20 202 9.7 22.5 0.00 0.00 0.00 81 1009.7
20260506105512 20 205 11.3 22.5 0.00 0.00 0.00 81 1009.7
20260506105419 20 180 9.7 22.5 0.00 0.00 0.00 81 1009.7
20260506105327 20 198 8.0 20.9 0.00 0.00 0.00 81 1009.7
20260506105235 20 221 9.7 20.9 0.00 0.00 0.00 81 1009.8
20260506105122 20 228 9.7 20.9 0.00 0.00 0.00 81 1009.8
20260506105057 20 187 11.3 20.9 0.00 0.00 0.00 81 1009.7
20260506104831 20 196 11.3 20.9 0.00 0.00 0.00 81 1009.8
20260506104717 20 188 12.9 20.9 0.00 0.00 0.00 81 1009.8
20260506104625 20 188 14.5 20.9 0.00 0.00 0.00 81 1009.8
20260506104512 20 200 12.9 24.1 0.00 0.00 0.00 81 1009.7
20260506104424 20 200 11.3 24.1 0.00 0.00 0.00 81 1009.7
20260506104312 20 209 8.0 24.1 0.00 0.00 0.00 81 1009.8
20260506104220 20 144 6.4 24.1 0.00 0.00 0.00 81 1009.8
20260506104127 20 234 6.4 24.1 0.00 0.00 0.00 81 1009.7
20260506104015 20 188 11.3 24.1 0.00 0.00 0.00 81 1009.8
20260506103923 20 215 12.9 24.1 0.00 0.00 0.00 81 1009.8
20260506103815 20 198 14.5 24.1 0.00 0.00 0.00 81 1009.8
20260506103723 20 223 14.5 24.1 0.00 0.00 0.00 81 1009.8
20260506103652 20 231 12.9 24.1 0.00 0.00 0.00 81 1009.8
20260506103601 20 196 11.3 24.1 0.00 0.00 0.00 81 1009.7
20260506103319 20 190 11.3 24.1 0.00 0.00 0.00 81 1009.8
20260506103227 20 278 9.7 24.1 0.00 0.00 0.00 80 1009.8
20260506103115 20 188 6.4 24.1 0.00 0.00 0.00 80 1009.7
20260506103042 20 203 8.0 24.1 0.00 0.00 0.00 80 1009.7
20260506102929 20 201 9.7 24.1 0.00 0.00 0.00 80 1009.6
20260506102816 20 192 11.3 24.1 0.00 0.00 0.00 80 1009.6
20260506102727 20 197 11.3 24.1 0.00 0.00 0.00 80 1009.6
20260506102614 20 194 14.5 24.1 0.00 0.00 0.00 80 1009.7
20260506102523 20 189 11.3 24.1 0.00 0.00 0.00 80 1009.7
20260506102450 20 182 6.4 19.3 0.00 0.00 0.00 80 1009.6
20260506102315 20 171 8.0 19.3 0.00 0.00 0.00 80 1009.6
20260506102222 20 217 11.3 19.3 0.00 0.00 0.00 80 1009.6
20260506102114 20 217 9.7 20.9 0.00 0.00 0.00 80 1009.6
20260506102045 20 190 9.7 20.9 0.00 0.00 0.00 80 1009.6
20260506101818 20 205 12.9 20.9 0.00 0.00 0.00 80 1009.6
20260506101726 20 161 12.9 25.7 0.00 0.00 0.00 80 1009.6
20260506101618 21 188 9.7 25.7 0.00 0.00 0.00 80 1009.5
20260506101525 20 221 11.3 25.7 0.00 0.00 0.00 80 1009.5
20260506101411 20 182 16.1 25.7 0.00 0.00 0.00 80 1009.4
20260506101318 20 228 12.9 25.7 0.00 0.00 0.00 80 1009.4
20260506101225 20 166 11.3 30.6 0.00 0.00 0.00 80 1009.4
20260506101112 20 191 12.9 30.6 0.00 0.00 0.00 80 1009.2
20260506101025 21 183 14.5 30.6 0.00 0.00 0.00 80 1009.2
20260506100951 21 168 16.1 30.6 0.00 0.00 0.00 80 1009.3
20260506100838 21 221 14.5 30.6 0.00 0.00 0.00 80 1009.4
20260506100744 21 192 12.9 30.6 0.00 0.00 0.00 80 1009.4
20260506100628 21 182 16.1 30.6 0.00 0.00 0.00 80 1009.4
20260506100558 21 202 16.1 30.6 0.00 0.00 0.00 80 1009.3
20260506100314 21 201 14.5 29.0 0.00 0.00 0.00 80 1009.4
20260506100222 21 200 12.9 29.0 0.00 0.00 0.00 80 1009.4
20260506100130 21 210 12.9 29.0 0.00 0.00 0.00 80 1009.2
20260506100018 21 161 11.3 29.0 0.00 0.00 0.00 80 1009.3
20260506095924 21 206 8.0 29.0 0.00 0.00 0.00 80 1009.3
20260506095815 21 198 6.4 29.0 0.00 0.00 0.00 80 1009.2
20260506095722 21 209 9.7 29.0 0.00 0.00 0.00 79 1009.2
20260506095629 21 246 12.9 29.0 0.00 0.00 0.00 80 1009.2
20260506095516 21 213 12.9 29.0 0.00 0.00 0.00 79 1009.1
20260506095424 21 169 11.3 24.1 0.00 0.00 0.00 79 1009.1
20260506095329 21 153 9.7 24.1 0.00 0.00 0.00 79 1009.0
20260506095220 21 190 8.0 24.1 0.00 0.00 0.00 79 1008.9
20260506095127 21 188 9.7 24.1 0.00 0.00 0.00 79 1008.9
20260506095057 21 202 9.7 24.1 0.00 0.00 0.00 79 1008.9
20260506094811 21 196 11.3 22.5 0.00 0.00 0.00 79 1008.8
20260506094722 21 182 8.0 17.7 0.00 0.00 0.00 79 1008.8
20260506094630 21 174 4.8 17.7 0.00 0.00 0.00 79 1008.8
20260506094538 21 174 8.0 17.7 0.00 0.00 0.00 79 1008.9
20260506094425 21 210 9.7 17.7 0.00 0.00 0.00 79 1008.9
20260506094314 21 181 9.7 17.7 0.00 0.00 0.00 79 1009.0
20260506094222 21 200 9.7 17.7 0.00 0.00 0.00 79 1009.0
20260506094113 21 214 9.7 25.7 0.00 0.00 0.00 79 1008.9
20260506094022 21 187 11.3 25.7 0.00 0.00 0.00 79 1008.9
20260506093930 21 209 14.5 25.7 0.00 0.00 0.00 79 1008.8
20260506093818 21 175 14.5 25.7 0.00 0.00 0.00 79 1008.9
20260506093725 21 190 14.5 25.7 0.00 0.00 0.00 79 1008.9
20260506093633 21 177 12.9 25.7 0.00 0.00 0.00 79 1008.9
20260506093547 21 196 16.1 25.7 0.00 0.00 0.00 79 1008.9
20260506093320 21 192 14.5 25.7 0.00 0.00 0.00 78 1008.8
20260506093228 21 183 11.3 29.0 0.00 0.00 0.00 78 1008.8
20260506093115 21 184 12.9 29.0 0.00 0.00 0.00 78 1009.0
20260506093026 21 200 16.1 29.0 0.00 0.00 0.00 78 1009.0
20260506092934 21 194 14.5 29.0 0.00 0.00 0.00 78 1008.9
20260506092821 21 208 11.3 29.0 0.00 0.00 0.00 78 1008.9
20260506092729 21 182 14.5 29.0 0.00 0.00 0.00 78 1009.0
20260506092617 21 179 19.3 29.0 0.00 0.00 0.00 78 1008.9
20260506092543 21 174 16.1 29.0 0.00 0.00 0.00 78 1008.9
20260506092414 21 205 14.5 24.1 0.00 0.00 0.00 78 1009.0
20260506092321 21 197 16.1 24.1 0.00 0.00 0.00 78 1009.0
20260506092228 21 206 16.1 27.4 0.00 0.00 0.00 78 1008.9
20260506092116 21 199 17.7 30.6 0.00 0.00 0.00 78 1009.1
20260506092046 21 182 16.1 30.6 0.00 0.00 0.00 78 1009.1
20260506091824 21 202 17.7 35.4 0.00 0.00 0.00 78 1009.0
20260506091730 21 211 17.7 35.4 0.00 0.00 0.00 78 1009.0
20260506091615 21 227 14.5 35.4 0.00 0.00 0.00 78 1009.0
20260506091522 21 195 14.5 35.4 0.00 0.00 0.00 78 1009.0
20260506091429 21 223 17.7 35.4 0.00 0.00 0.00 78 1008.9
20260506091317 21 198 19.3 35.4 0.00 0.00 0.00 78 1009.0
20260506091227 21 188 16.1 35.4 0.00 0.00 0.00 78 1009.0
20260506091136 21 246 16.1 35.4 0.00 0.00 0.00 78 1009.1
20260506091023 21 213 19.3 35.4 0.00 0.00 0.00 78 1009.1
20260506090929 21 187 17.7 37.0 0.00 0.00 0.00 78 1009.0
20260506090817 21 213 17.7 29.0 0.00 0.00 0.00 78 1009.1
20260506090725 21 223 16.1 29.0 0.00 0.00 0.00 77 1009.1
20260506090618 21 194 12.9 35.4 0.00 0.00 0.00 77 1009.0
20260506090549 21 200 11.3 35.4 0.00 0.00 0.00 77 1009.0
20260506090321 21 179 14.5 35.4 0.00 0.00 0.00 77 1009.0
20260506090250 21 215 16.1 35.4 0.00 0.00 0.00 77 1009.0
20260506090118 21 279 12.9 35.4 0.00 0.00 0.00 77 1009.0
20260506090029 21 223 12.9 35.4 0.00 0.00 0.00 77 1009.0
20260506085914 21 177 16.1 35.4 0.00 0.00 0.00 77 1008.9
20260506085822 21 205 16.1 35.4 0.00 0.00 0.00 78 1008.9
20260506085729 21 186 17.7 35.4 0.00 0.00 0.00 77 1008.9
20260506085614 21 192 19.3 35.4 0.00 0.00 0.00 77 1009.0
20260506085543 21 204 17.7 35.4 0.00 0.00 0.00 77 1009.0
20260506085412 21 198 16.1 29.0 0.00 0.00 0.00 77 1009.0
20260506085320 21 176 14.5 29.0 0.00 0.00 0.00 77 1009.0
20260506085227 21 190 12.9 29.0 0.00 0.00 0.00 77 1009.1
20260506085114 21 217 12.9 29.0 0.00 0.00 0.00 77 1009.0
20260506085044 21 186 12.9 29.0 0.00 0.00 0.00 77 1009.0
20260506084822 21 176 14.5 29.0 0.00 0.00 0.00 77 1009.1
20260506084729 21 178 16.1 29.0 0.00 0.00 0.00 77 1008.9
20260506084637 21 199 14.5 33.8 0.00 0.00 0.00 77 1008.9
20260506084543 21 259 11.3 24.1 0.00 0.00 0.00 77 1008.9
20260506084410 21 162 9.7 24.1 0.00 0.00 0.00 77 1008.9
20260506084317 21 238 11.3 24.1 0.00 0.00 0.00 77 1008.8
20260506084245 21 175 11.3 24.1 0.00 0.00 0.00 77 1008.8
20260506084117 21 192 12.9 24.1 0.00 0.00 0.00 77 1008.8
20260506084045 21 208 14.5 30.6 0.00 0.00 0.00 77 1008.8
20260506083911 21 209 12.9 30.6 0.00 0.00 0.00 77 1008.9
20260506083838 21 189 11.3 30.6 0.00 0.00 0.00 76 1008.9
20260506083724 21 177 12.9 30.6 0.00 0.00 0.00 76 1008.9
20260506083611 21 180 11.3 30.6 0.00 0.00 0.00 76 1008.9
20260506083544 21 168 12.9 30.6 0.00 0.00 0.00 76 1008.9
20260506083337 21 198 16.1 30.6 0.00 0.00 0.00 76 1008.9
20260506083242 21 190 19.3 30.6 0.00 0.00 0.00 76 1008.9
20260506083128 21 202 19.3 30.6 0.00 0.00 0.00 76 1008.9
20260506083015 21 217 14.5 24.1 0.00 0.00 0.00 76 1009.0
20260506082927 21 166 12.9 24.1 0.00 0.00 0.00 76 1009.0
20260506082814 21 211 12.9 25.7 0.00 0.00 0.00 76 1008.9
20260506082721 21 190 12.9 25.7 0.00 0.00 0.00 76 1008.9
20260506082629 21 195 11.3 25.7 0.00 0.00 0.00 76 1009.0
20260506082516 21 210 12.9 29.0 0.00 0.00 0.00 75 1008.9
20260506082422 21 229 11.3 30.6 0.00 0.00 0.00 75 1008.9
20260506082313 21 182 11.3 30.6 0.00 0.00 0.00 75 1008.9
20260506082220 21 200 14.5 30.6 0.00 0.00 0.00 75 1008.9
20260506082129 21 242 16.1 30.6 0.00 0.00 0.00 74 1008.8
20260506082100 21 200 16.1 30.6 0.00 0.00 0.00 74 1008.8
20260506081818 21 203 16.1 30.6 0.00 0.00 0.00 74 1008.8
20260506081724 21 186 19.3 30.6 0.00 0.00 0.00 74 1008.8
20260506081611 21 167 19.3 30.6 0.00 0.00 0.00 74 1008.8
20260506081519 21 184 16.1 29.0 0.00 0.00 0.00 74 1008.9
20260506081425 21 167 16.1 25.7 0.00 0.00 0.00 74 1008.9
20260506081313 21 171 12.9 25.7 0.00 0.00 0.00 74 1008.8
20260506081223 21 192 11.3 25.7 0.00 0.00 0.00 74 1008.8
20260506081111 21 228 11.3 25.7 0.00 0.00 0.00 74 1008.9
20260506081018 21 216 16.1 25.7 0.00 0.00 0.00 73 1008.9
20260506080925 21 207 14.5 25.7 0.00 0.00 0.00 73 1008.9
20260506080832 21 197 11.3 38.6 0.00 0.00 0.00 73 1008.8
20260506080717 21 184 11.3 38.6 0.00 0.00 0.00 73 1008.8
20260506080628 21 187 11.3 38.6 0.00 0.00 0.00 73 1008.8
20260506080558 21 223 9.7 38.6 0.00 0.00 0.00 73 1008.9
20260506080312 21 196 12.9 38.6 0.00 0.00 0.00 73 1008.7
20260506080218 21 187 12.9 38.6 0.00 0.00 0.00 73 1008.8
20260506080146 21 221 16.1 38.6 0.00 0.00 0.00 73 1008.8
20260506073330 21 230 16.1 30.6 0.00 0.00 0.00 71 1008.8
20260506073218 21 191 17.7 30.6 0.00 0.00 0.00 71 1008.8
20260506073129 21 207 17.7 30.6 0.00 0.00 0.00 71 1008.8
20260506073016 21 198 17.7 22.5 0.00 0.00 0.00 71 1008.9
20260506072922 21 210 16.1 24.1 0.00 0.00 0.00 71 1008.9
20260506072828 21 203 16.1 24.1 0.00 0.00 0.00 71 1008.8
20260506072716 21 191 14.5 24.1 0.00 0.00 0.00 71 1008.8
20260506072622 21 199 12.9 24.1 0.00 0.00 0.00 71 1008.8
20260506072513 21 215 12.9 24.1 0.00 0.00 0.00 71 1008.8
20260506072421 21 180 12.9 25.7 0.00 0.00 0.00 71 1008.8
20260506072328 21 168 12.9 29.0 0.00 0.00 0.00 71 1008.8
20260506072235 21 161 11.3 29.0 0.00 0.00 0.00 71 1008.8
20260506072121 21 199 11.3 29.0 0.00 0.00 0.00 71 1008.8
20260506072054 21 145 11.3 29.0 0.00 0.00 0.00 71 1008.8
20260506071827 21 192 14.5 29.0 0.00 0.00 0.00 71 1008.8
20260506071715 21 219 17.7 29.0 0.00 0.00 0.00 71 1008.8
20260506071623 21 180 17.7 29.0 0.00 0.00 0.00 71 1008.8
20260506071529 21 200 17.7 29.0 0.00 0.00 0.00 71 1008.7
20260506071441 21 209 16.1 25.7 0.00 0.00 0.00 71 1008.7
20260506071326 21 207 11.3 25.7 0.00 0.00 0.00 71 1008.7
20260506071214 21 191 9.7 25.7 0.00 0.00 0.00 71 1008.6
20260506071122 21 197 14.5 25.7 0.00 0.00 0.00 71 1008.6
20260506071030 21 196 14.5 25.7 0.00 0.00 0.00 71 1008.5
20260506070938 21 151 14.5 25.7 0.00 0.00 0.00 70 1008.5
20260506070828 21 197 12.9 25.7 0.00 0.00 0.00 70 1008.5
20260506070736 21 163 11.3 25.7 0.00 0.00 0.00 70 1008.7
20260506070642 21 209 9.7 25.7 0.00 0.00 0.00 70 1008.7
20260506070551 21 191 9.7 25.7 0.00 0.00 0.00 70 1008.6
20260506070323 21 195 12.9 25.7 0.00 0.00 0.00 70 1008.6
20260506070215 21 197 12.9 25.7 0.00 0.00 0.00 70 1008.5
20260506070123 21 198 11.3 20.9 0.00 0.00 0.00 70 1008.5
20260506062514 21 192 8.0 19.3 0.00 0.00 0.00 70 1008.8
20260506062442 21 183 9.7 22.5 0.00 0.00 0.00 70 1008.8
20260506062329 21 207 9.7 22.5 0.00 0.00 0.00 70 1008.8
20260506062256 21 140 9.7 22.5 0.00 0.00 0.00 70 1008.7
20260506062046 21 146 9.7 22.5 0.00 0.00 0.00 70 1008.8
20260506061819 21 188 11.3 22.5 0.00 0.00 0.00 70 1009.0
20260506061747 21 193 12.9 22.5 0.00 0.00 0.00 70 1009.1
20260506061634 21 190 14.5 22.5 0.00 0.00 0.00 70 1009.2
20260506061541 21 202 12.9 22.5 0.00 0.00 0.00 70 1009.2
20260506061427 21 242 12.9 20.9 0.00 0.00 0.00 70 1009.1
20260506061320 21 189 14.5 19.3 0.00 0.00 0.00 70 1009.2
20260506061227 21 242 12.9 19.3 0.00 0.00 0.00 70 1009.2
20260506061114 21 196 9.7 17.7 0.00 0.00 0.00 70 1009.2
20260506061020 21 183 9.7 17.7 0.00 0.00 0.00 70 1009.2
20260506060927 21 190 9.7 17.7 0.00 0.00 0.00 69 1009.2
20260506060819 21 191 9.7 17.7 0.00 0.00 0.00 69 1009.2
20260506060726 21 233 8.0 17.7 0.00 0.00 0.00 69 1009.2
20260506060633 21 218 9.7 17.7 0.00 0.00 0.00 69 1009.2
20260506060603 21 132 9.7 19.3 0.00 0.00 0.00 69 1009.2
20260506060337 21 196 9.7 19.3 0.00 0.00 0.00 69 1009.2
20260506060226 21 187 9.7 19.3 0.00 0.00 0.00 69 1009.2
20260506060115 21 169 9.7 20.9 0.00 0.00 0.00 69 1009.2
20260506051316 21 182 9.7 16.1 0.00 0.00 0.00 67 1009.7
20260506051243 21 186 9.7 16.1 0.00 0.00 0.00 68 1009.7
20260506051129 21 166 11.3 16.1 0.00 0.00 0.00 67 1009.7
20260506051016 21 207 9.7 16.1 0.00 0.00 0.00 67 1009.7
20260506050922 21 197 9.7 16.1 0.00 0.00 0.00 67 1009.7
20260506050829 21 154 8.0 16.1 0.00 0.00 0.00 68 1009.7
20260506050741 21 177 8.0 16.1 0.00 0.00 0.00 67 1009.8
20260506050627 21 156 9.7 16.1 0.00 0.00 0.00 67 1009.8
20260506050557 21 198 9.7 16.1 0.00 0.00 0.00 67 1009.7
20260506050350 21 183 11.3 16.1 0.00 0.00 0.00 67 1009.9
20260506050215 21 194 11.3 17.7 0.00 0.00 0.00 67 1010.0
20260506050124 21 136 11.3 16.1 0.00 0.00 0.00 67 1010.0
20260506045124 21 226 8.0 20.9 0.00 0.00 0.00 67 1009.9
20260506045058 21 178 8.0 20.9 0.00 0.00 0.00 67 1010.0
20260506044832 21 216 12.9 17.7 0.00 0.00 0.00 67 1009.9
20260506044738 21 164 12.9 19.3 0.00 0.00 0.00 67 1009.9
20260506044623 21 192 12.9 19.3 0.00 0.00 0.00 67 1009.9
20260506044511 21 190 11.3 19.3 0.00 0.00 0.00 67 1010.0
20260506044418 21 197 12.9 19.3 0.00 0.00 0.00 67 1009.9
20260506044311 21 185 12.9 19.3 0.00 0.00 0.00 67 1009.8
20260506044217 21 202 9.7 16.1 0.00 0.00 0.00 67 1009.8
20260506044144 22 167 8.0 16.1 0.00 0.00 0.00 67 1009.8
20260506044011 21 171 8.0 16.1 0.00 0.00 0.00 67 1009.8
20260506043918 22 155 9.7 24.1 0.00 0.00 0.00 67 1009.9
20260506043847 21 199 9.7 24.1 0.00 0.00 0.00 67 1009.9
20260506043713 22 180 9.7 24.1 0.00 0.00 0.00 67 1009.8
20260506043624 21 182 8.0 24.1 0.00 0.00 0.00 67 1009.8
20260506043555 22 207 8.0 24.1 0.00 0.00 0.00 67 1009.7
20260506043328 22 201 9.7 24.1 0.00 0.00 0.00 67 1009.8
20260506043216 22 156 11.3 24.1 0.00 0.00 0.00 67 1009.9
20260506043125 22 174 11.3 24.1 0.00 0.00 0.00 67 1009.9
20260506043015 22 191 14.5 22.5 0.00 0.00 0.00 67 1010.0
20260506042922 22 189 14.5 22.5 0.00 0.00 0.00 67 1010.0
20260506042829 22 166 12.9 22.5 0.00 0.00 0.00 67 1010.0
20260506042716 22 171 11.3 19.3 0.00 0.00 0.00 67 1010.1
20260506042624 22 190 14.5 19.3 0.00 0.00 0.00 67 1010.1
20260506042515 21 207 14.5 20.9 0.00 0.00 0.00 67 1010.1
20260506042423 22 162 12.9 20.9 0.00 0.00 0.00 67 1010.1
20260506042311 22 182 14.5 20.9 0.00 0.00 0.00 67 1010.0
20260506042220 22 209 12.9 17.7 0.00 0.00 0.00 67 1010.0
20260506042127 22 190 11.3 19.3 0.00 0.00 0.00 67 1010.0
20260506042103 22 197 11.3 17.7 0.00 0.00 0.00 67 1010.0
20260506041837 22 173 9.7 22.5 0.00 0.00 0.00 67 1010.1
20260506041722 22 208 9.7 22.5 0.00 0.00 0.00 67 1010.1
20260506041651 22 169 11.3 22.5 0.00 0.00 0.00 67 1010.0
20260506041518 22 187 11.3 22.5 0.00 0.00 0.00 67 1010.0
20260506041425 22 188 9.7 22.5 0.00 0.00 0.00 67 1010.0
20260506041316 22 215 8.0 22.5 0.00 0.00 0.00 67 1010.0
20260506041225 22 178 11.3 22.5 0.00 0.00 0.00 67 1010.0
20260506041112 22 174 11.3 22.5 0.00 0.00 0.00 67 1010.1
20260506041020 22 192 9.7 16.1 0.00 0.00 0.00 67 1010.1
20260506040927 22 169 9.7 16.1 0.00 0.00 0.00 67 1010.1
20260506040813 22 199 8.0 16.1 0.00 0.00 0.00 67 1010.1
20260506040724 22 195 8.0 16.1 0.00 0.00 0.00 67 1010.1
20260506040651 22 174 8.0 16.1 0.00 0.00 0.00 67 1010.1
20260506040622 22 127 8.0 16.1 0.00 0.00 0.00 67 1010.0
20260506040314 22 178 8.0 16.1 0.00 0.00 0.00 67 1010.0
20260506040222 22 182 9.7 16.1 0.00 0.00 0.00 67 1010.0
20260506040112 22 191 9.7 16.1 0.00 0.00 0.00 67 1010.0
20260506040039 22 178 8.0 14.5 0.00 0.00 0.00 67 1010.1
20260506035925 22 192 8.0 14.5 0.00 0.00 0.00 67 1010.1
20260506035813 22 171 8.0 16.1 0.00 0.00 0.00 67 1010.1
20260506035722 22 142 8.0 16.1 0.00 0.00 0.00 67 1010.1
20260506035614 22 183 8.0 16.1 0.00 0.00 0.00 67 1010.1
20260506035521 22 165 6.4 16.1 0.00 0.00 0.00 67 1010.1
20260506035429 22 161 6.4 16.1 0.00 0.00 0.00 67 1010.1
20260506035316 22 140 8.0 16.1 0.00 0.00 0.00 67 1010.1
20260506035223 22 182 9.7 16.1 0.00 0.00 0.00 67 1010.1
20260506035131 22 184 8.0 16.1 0.00 0.00 0.00 67 1010.0
20260506035106 22 183 6.4 19.3 0.00 0.00 0.00 67 1010.0
20260506034818 22 184 8.0 19.3 0.00 0.00 0.00 67 1010.0
20260506034726 22 194 9.7 19.3 0.00 0.00 0.00 67 1010.0
20260506034614 22 189 9.7 19.3 0.00 0.00 0.00 67 1010.0
20260506034542 22 174 9.7 19.3 0.00 0.00 0.00 67 1010.1
20260506034411 22 141 8.0 19.3 0.00 0.00 0.00 67 1010.1
20260506034319 22 221 8.0 19.3 0.00 0.00 0.00 67 1010.1
20260506034227 22 200 9.7 19.3 0.00 0.00 0.00 67 1010.1
20260506034114 22 196 11.3 19.3 0.00 0.00 0.00 67 1010.1
20260506034021 22 183 9.7 19.3 0.00 0.00 0.00 67 1010.1
20260506033912 22 184 6.4 17.7 0.00 0.00 0.00 67 1010.1
20260506033820 22 189 6.4 17.7 0.00 0.00 0.00 67 1010.0
20260506033746 22 185 6.4 17.7 0.00 0.00 0.00 66 1010.0
20260506033613 22 207 9.7 17.7 0.00 0.00 0.00 67 1010.1
20260506033546 22 190 9.7 17.7 0.00 0.00 0.00 67 1010.1
20260506033323 22 186 11.3 17.7 0.00 0.00 0.00 66 1010.1
20260506033211 22 189 9.7 19.3 0.00 0.00 0.00 66 1010.0
20260506033119 22 197 11.3 19.3 0.00 0.00 0.00 66 1010.0
20260506033027 22 202 11.3 19.3 0.00 0.00 0.00 66 1010.0
20260506032915 22 157 9.7 19.3 0.00 0.00 0.00 66 1009.9
20260506032843 22 171 9.7 19.3 0.00 0.00 0.00 66 1009.9
20260506032713 22 162 11.3 19.3 0.00 0.00 0.00 66 1009.9
20260506032621 22 134 11.3 19.3 0.00 0.00 0.00 66 1009.9
20260506032529 22 183 11.3 19.3 0.00 0.00 0.00 66 1010.1
20260506032416 22 212 11.3 19.3 0.00 0.00 0.00 66 1010.1
20260506032323 22 202 11.3 19.3 0.00 0.00 0.00 66 1010.1
20260506032216 22 172 9.7 19.3 0.00 0.00 0.00 66 1010.2
20260506032121 22 184 9.7 19.3 0.00 0.00 0.00 66 1010.2
20260506032051 22 188 11.3 19.3 0.00 0.00 0.00 66 1010.1
20260506031844 22 182 11.3 19.3 0.00 0.00 0.00 66 1010.1
20260506031710 22 169 11.3 19.3 0.00 0.00 0.00 66 1010.1
20260506031618 22 195 12.9 19.3 0.00 0.00 0.00 66 1010.1
20260506031530 22 190 12.9 19.3 0.00 0.00 0.00 66 1010.1
20260506031416 22 190 9.7 22.5 0.00 0.00 0.00 66 1010.0
20260506031324 22 131 8.0 22.5 0.00 0.00 0.00 67 1010.0
20260506031212 22 215 9.7 22.5 0.00 0.00 0.00 67 1010.0
20260506031118 22 184 11.3 22.5 0.00 0.00 0.00 66 1010.0
20260506031011 22 169 11.3 17.7 0.00 0.00 0.00 66 1009.9
20260506030938 22 196 9.7 17.7 0.00 0.00 0.00 66 1010.0
20260506030824 22 167 11.3 17.7 0.00 0.00 0.00 66 1010.0
20260506030713 22 173 9.7 17.7 0.00 0.00 0.00 66 1010.0
20260506030641 22 192 9.7 17.7 0.00 0.00 0.00 66 1010.0
20260506030615 22 180 9.7 17.7 0.00 0.00 0.00 66 1009.9
20260506030349 22 170 9.7 17.7 0.00 0.00 0.00 66 1010.0
20260506030216 22 211 9.7 17.7 0.00 0.00 0.00 66 1010.1
20260506030122 22 204 11.3 17.7 0.00 0.00 0.00 66 1010.1
20260506030010 22 184 9.7 16.1 0.00 0.00 0.00 66 1010.1
20260506025917 22 179 9.7 16.1 0.00 0.00 0.00 66 1010.2
20260506025844 22 194 9.7 16.1 0.00 0.00 0.00 66 1010.2
20260506025714 22 171 11.3 16.1 0.00 0.00 0.00 66 1010.1
20260506025622 22 188 11.3 16.1 0.00 0.00 0.00 66 1010.1
20260506025530 22 175 9.7 16.1 0.00 0.00 0.00 66 1010.1
20260506025438 22 219 6.4 16.1 0.00 0.00 0.00 66 1010.1
20260506025346 22 182 9.7 16.1 0.00 0.00 0.00 66 1010.1
20260506025212 22 169 9.7 16.1 0.00 0.00 0.00 66 1010.1
20260506025125 22 190 11.3 16.1 0.00 0.00 0.00 66 1010.1
20260506025055 22 188 11.3 16.1 0.00 0.00 0.00 66 1010.0
20260506024829 22 187 11.3 16.1 0.00 0.00 0.00 66 1010.1
20260506024718 22 170 8.0 16.1 0.00 0.00 0.00 67 1010.0
20260506024610 22 151 6.4 16.1 0.00 0.00 0.00 66 1009.9
20260506024517 22 209 6.4 16.1 0.00 0.00 0.00 67 1009.9
20260506024424 22 188 4.8 16.1 0.00 0.00 0.00 66 1009.9
20260506024312 22 199 6.4 16.1 0.00 0.00 0.00 66 1009.7
20260506024240 22 130 6.4 16.1 0.00 0.00 0.00 66 1009.8
20260506024126 22 165 8.0 16.1 0.00 0.00 0.00 66 1009.8
20260506024014 22 232 9.7 17.7 0.00 0.00 0.00 66 1009.8
20260506023924 22 180 11.3 16.1 0.00 0.00 0.00 66 1009.8
20260506023812 22 178 9.7 16.1 0.00 0.00 0.00 66 1009.7
20260506023720 22 225 8.0 16.1 0.00 0.00 0.00 67 1009.7
20260506023627 22 139 6.4 16.1 0.00 0.00 0.00 66 1009.7
20260506023602 22 141 6.4 16.1 0.00 0.00 0.00 67 1009.7
20260506023315 22 189 6.4 16.1 0.00 0.00 0.00 67 1009.7
20260506023222 22 178 8.0 20.9 0.00 0.00 0.00 67 1009.7
20260506023130 22 146 9.7 20.9 0.00 0.00 0.00 66 1009.8
20260506023017 22 186 11.3 20.9 0.00 0.00 0.00 66 1009.9
20260506022925 22 169 11.3 20.9 0.00 0.00 0.00 67 1009.9
20260506022817 22 196 9.7 20.9 0.00 0.00 0.00 67 1009.9
20260506022725 22 163 9.7 20.9 0.00 0.00 0.00 67 1009.9
20260506022613 22 154 9.7 20.9 0.00 0.00 0.00 67 1009.9
20260506022521 22 179 12.9 20.9 0.00 0.00 0.00 67 1009.9
20260506022427 22 166 14.5 20.9 0.00 0.00 0.00 67 1010.0
20260506022319 22 201 12.9 20.9 0.00 0.00 0.00 67 1009.9
20260506022226 22 190 9.7 20.9 0.00 0.00 0.00 67 1009.9
20260506022134 22 173 11.3 20.9 0.00 0.00 0.00 67 1009.7
20260506022103 22 208 11.3 20.9 0.00 0.00 0.00 67 1009.8
20260506021817 22 191 11.3 20.9 0.00 0.00 0.00 67 1009.7
20260506021729 22 179 11.3 20.9 0.00 0.00 0.00 67 1009.7
20260506021616 22 202 12.9 20.9 0.00 0.00 0.00 67 1009.7
20260506021523 22 194 12.9 19.3 0.00 0.00 0.00 67 1009.7
20260506021429 22 187 11.3 16.1 0.00 0.00 0.00 67 1009.7
20260506021317 21 196 11.3 17.7 0.00 0.00 0.00 67 1009.7
20260506021225 22 178 9.7 16.1 0.00 0.00 0.00 67 1009.7
20260506021116 22 175 8.0 16.1 0.00 0.00 0.00 67 1009.7
20260506021025 22 187 8.0 16.1 0.00 0.00 0.00 67 1009.7
20260506020931 21 159 9.7 16.1 0.00 0.00 0.00 67 1009.6
20260506020817 21 187 11.3 16.1 0.00 0.00 0.00 67 1009.5
20260506020723 21 184 11.3 16.1 0.00 0.00 0.00 67 1009.5
20260506020615 21 168 8.0 16.1 0.00 0.00 0.00 67 1009.3
20260506020546 22 202 9.7 16.1 0.00 0.00 0.00 67 1009.3
20260506020318 22 213 9.7 16.1 0.00 0.00 0.00 67 1009.0
20260506020225 22 151 8.0 16.1 0.00 0.00 0.00 67 1009.0
20260506020111 22 165 9.7 16.1 0.00 0.00 0.00 67 1008.9
20260506020022 22 132 9.7 16.1 0.00 0.00 0.00 67 1008.9
20260506015929 22 132 9.7 16.1 0.00 0.00 0.00 67 1008.9
20260506015837 22 140 8.0 16.1 0.00 0.00 0.00 67 1009.0
20260506015724 22 178 9.7 16.1 0.00 0.00 0.00 67 1009.0
20260506015612 22 215 11.3 16.1 0.00 0.00 0.00 67 1009.2
20260506015520 22 163 9.7 16.1 0.00 0.00 0.00 66 1009.2
20260506015411 22 211 8.0 12.9 0.00 0.00 0.00 66 1009.4
20260506015319 22 160 8.0 20.9 0.00 0.00 0.00 66 1009.3
20260506015226 22 159 8.0 22.5 0.00 0.00 0.00 66 1009.3
20260506015134 22 151 8.0 22.5 0.00 0.00 0.00 66 1009.3
20260506015048 22 192 6.4 22.5 0.00 0.00 0.00 66 1009.3
20260506014822 22 142 8.0 22.5 0.00 0.00 0.00 66 1009.3
20260506014729 22 172 9.7 22.5 0.00 0.00 0.00 66 1009.4
20260506014617 22 148 12.9 22.5 0.00 0.00 0.00 66 1009.5
20260506014524 22 185 12.9 24.1 0.00 0.00 0.00 66 1009.5
20260506014412 22 179 11.3 17.7 0.00 0.00 0.00 66 1009.6
20260506014322 22 159 11.3 24.1 0.00 0.00 0.00 66 1009.6
20260506014229 22 156 9.7 24.1 0.00 0.00 0.00 66 1009.7
20260506014117 22 155 6.4 24.1 0.00 0.00 0.00 66 1009.8
20260506014026 22 198 8.0 24.1 0.00 0.00 0.00 66 1009.8
20260506013912 22 173 9.7 24.1 0.00 0.00 0.00 66 1009.8
20260506013825 22 157 11.3 24.1 0.00 0.00 0.00 66 1009.8
20260506013713 22 161 12.9 24.1 0.00 0.00 0.00 66 1009.8
20260506013619 22 171 9.7 24.1 0.00 0.00 0.00 66 1009.8
20260506013547 22 167 11.3 17.7 0.00 0.00 0.00 66 1009.8
20260506013321 22 227 8.0 16.1 0.00 0.00 0.00 66 1009.8
20260506013232 22 181 8.0 16.1 0.00 0.00 0.00 66 1009.8
20260506013139 22 159 9.7 16.1 0.00 0.00 0.00 66 1009.7
20260506013025 22 188 9.7 16.1 0.00 0.00 0.00 66 1009.7
20260506012912 22 213 8.0 16.1 0.00 0.00 0.00 66 1009.6
20260506012820 22 168 8.0 16.1 0.00 0.00 0.00 66 1009.6
20260506012748 22 148 9.7 16.1 0.00 0.00 0.00 66 1009.6
20260506012619 22 184 12.9 16.1 0.00 0.00 0.00 66 1009.7
20260506012546 22 205 9.7 16.1 0.00 0.00 0.00 66 1009.7
20260506012431 22 187 6.4 12.9 0.00 0.00 0.00 66 1009.7
20260506012318 22 192 4.8 12.9 0.00 0.00 0.00 66 1009.6
20260506012225 22 161 4.8 12.9 0.00 0.00 0.00 66 1009.6
20260506012132 22 207 4.8 12.9 0.00 0.00 0.00 66 1009.6
20260506012108 22 178 6.4 12.9 0.00 0.00 0.00 66 1009.6
20260506011820 22 171 8.0 12.9 0.00 0.00 0.00 66 1009.6
20260506011728 22 168 6.4 12.9 0.00 0.00 0.00 66 1009.6
20260506011615 22 190 8.0 19.3 0.00 0.00 0.00 66 1009.5
20260506011524 22 128 8.0 19.3 0.00 0.00 0.00 65 1009.5
20260506011415 22 160 8.0 19.3 0.00 0.00 0.00 66 1009.5
20260506011323 22 151 6.4 19.3 0.00 0.00 0.00 65 1009.5
20260506011230 22 206 6.4 19.3 0.00 0.00 0.00 65 1009.5
20260506011116 22 143 9.7 19.3 0.00 0.00 0.00 66 1009.4
20260506011045 22 175 11.3 19.3 0.00 0.00 0.00 65 1009.4
20260506010910 22 153 12.9 19.3 0.00 0.00 0.00 65 1009.5
20260506010821 22 118 11.3 17.7 0.00 0.00 0.00 65 1009.5
20260506010727 22 182 11.3 17.7 0.00 0.00 0.00 65 1009.4
20260506010634 22 164 9.7 17.7 0.00 0.00 0.00 65 1009.5
20260506010604 22 142 9.7 17.7 0.00 0.00 0.00 65 1009.5
20260506010317 22 132 9.7 22.5 0.00 0.00 0.00 65 1009.4
20260506010228 22 160 9.7 22.5 0.00 0.00 0.00 65 1009.4
20260506010115 22 144 9.7 22.5 0.00 0.00 0.00 65 1009.4
20260506010023 22 142 8.0 22.5 0.00 0.00 0.00 65 1009.4
20260506005912 22 146 8.0 22.5 0.00 0.00 0.00 65 1009.4
20260506005819 22 175 8.0 22.5 0.00 0.00 0.00 65 1009.4
20260506005711 22 152 11.3 22.5 0.00 0.00 0.00 64 1009.4
20260506005618 22 187 11.3 22.5 0.00 0.00 0.00 65 1009.5
20260506005526 22 165 9.7 20.9 0.00 0.00 0.00 65 1009.5
20260506005412 22 193 9.7 14.5 0.00 0.00 0.00 64 1009.5
20260506005319 22 185 9.7 16.1 0.00 0.00 0.00 64 1009.4
20260506005211 22 164 8.0 17.7 0.00 0.00 0.00 64 1009.4
20260506005118 22 196 9.7 17.7 0.00 0.00 0.00 64 1009.4
20260506005047 22 194 8.0 19.3 0.00 0.00 0.00 65 1009.4
20260506004841 22 196 8.0 19.3 0.00 0.00 0.00 64 1009.5
20260506004726 22 176 8.0 19.3 0.00 0.00 0.00 65 1009.5
20260506004633 22 198 9.7 19.3 0.00 0.00 0.00 64 1009.5
20260506004523 22 197 11.3 19.3 0.00 0.00 0.00 64 1009.5
20260506004412 22 155 11.3 19.3 0.00 0.00 0.00 64 1009.5
20260506004318 22 210 9.7 19.3 0.00 0.00 0.00 64 1009.5
20260506004225 22 184 11.3 19.3 0.00 0.00 0.00 64 1009.5
20260506004112 22 175 9.7 19.3 0.00 0.00 0.00 64 1009.6
20260506004023 22 189 8.0 16.1 0.00 0.00 0.00 64 1009.6
20260506003951 22 193 9.7 16.1 0.00 0.00 0.00 64 1009.6
20260506003816 22 169 11.3 16.1 0.00 0.00 0.00 64 1009.6
20260506003723 22 205 9.7 16.1 0.00 0.00 0.00 64 1009.6
20260506003610 22 182 8.0 17.7 0.00 0.00 0.00 64 1009.6
20260506003545 22 171 8.0 17.7 0.00 0.00 0.00 64 1009.6
20260506003317 22 182 6.4 17.7 0.00 0.00 0.00 64 1009.6
20260506003225 22 188 8.0 17.7 0.00 0.00 0.00 64 1009.6
20260506003112 22 186 8.0 17.7 0.00 0.00 0.00 63 1009.5
20260506003021 22 176 8.0 17.7 0.00 0.00 0.00 64 1009.5
20260506002948 22 150 8.0 17.7 0.00 0.00 0.00 63 1009.5
20260506002819 22 190 9.7 17.7 0.00 0.00 0.00 64 1009.5
20260506002727 22 198 9.7 22.5 0.00 0.00 0.00 63 1009.5
20260506002613 22 144 6.4 22.5 0.00 0.00 0.00 64 1009.3
20260506002541 22 130 6.4 22.5 0.00 0.00 0.00 63 1009.1
20260506002448 22 143 8.0 22.5 0.00 0.00 0.00 63 1009.1
20260506002314 22 139 9.7 22.5 0.00 0.00 0.00 63 1009.3
20260506002242 22 175 9.7 22.5 0.00 0.00 0.00 63 1009.3
20260506002133 22 151 11.3 22.5 0.00 0.00 0.00 63 1009.4
20260506002102 22 147 12.9 22.5 0.00 0.00 0.00 63 1009.5
20260506001815 22 194 12.9 19.3 0.00 0.00 0.00 63 1009.3
20260506001723 22 185 11.3 17.7 0.00 0.00 0.00 63 1009.3
20260506001615 22 158 9.7 17.7 0.00 0.00 0.00 63 1009.2
20260506001521 22 168 9.7 17.7 0.00 0.00 0.00 63 1009.2
20260506001429 22 169 9.7 20.9 0.00 0.00 0.00 63 1009.3
20260506001336 22 199 9.7 20.9 0.00 0.00 0.00 63 1009.2
20260506001223 22 118 8.0 20.9 0.00 0.00 0.00 63 1009.2
20260506001150 22 209 9.7 20.9 0.00 0.00 0.00 63 1009.3
20260506001015 22 184 11.3 20.9 0.00 0.00 0.00 63 1009.5
20260506000928 22 140 11.3 20.9 0.00 0.00 0.00 63 1009.5
20260506000815 22 175 11.3 20.9 0.00 0.00 0.00 63 1009.4
20260506000723 22 183 11.3 20.9 0.00 0.00 0.00 62 1009.4
20260506000651 22 199 11.3 20.9 0.00 0.00 0.00 62 1009.4
20260506000620 22 201 11.3 20.9 0.00 0.00 0.00 62 1009.3
20260506000336 22 160 12.9 20.9 0.00 0.00 0.00 62 1009.2
20260506000222 22 179 14.5 24.1 0.00 0.00 0.00 62 1009.2
20260506000129 22 155 14.5 25.7 0.00 0.00 0.00 62 1009.3
20260506000017 22 204 11.3 25.7 0.00 0.00 0.00 62 1009.4
20260505235924 22 151 8.0 25.7 0.00 0.00 0.00 63 1009.4
20260505235816 22 150 9.7 25.7 0.00 0.00 0.00 62 1009.3
20260505235724 22 191 9.7 25.7 0.00 0.00 0.00 62 1009.3
20260505235613 22 129 11.3 25.7 0.00 0.00 0.00 62 1009.3
20260505235520 22 151 14.5 25.7 0.00 0.00 0.00 62 1009.3
20260505235427 22 154 16.1 25.7 0.00 0.00 0.00 62 1009.4
20260505235313 22 152 14.5 25.7 0.00 0.00 0.00 62 1009.3
20260505235223 22 165 14.5 25.7 0.00 0.00 0.00 62 1009.3
20260505235131 22 130 12.9 22.5 0.00 0.00 0.00 62 1009.3
20260505235101 22 155 9.7 22.5 0.00 0.00 0.00 62 1009.4
20260505234815 22 151 11.3 22.5 0.00 0.00 0.00 62 1009.4
20260505234727 22 170 11.3 22.5 0.00 0.00 0.00 62 1009.4
20260505234614 22 139 9.7 22.5 0.00 0.00 0.00 62 1009.5
20260505234522 22 142 8.0 22.5 0.00 0.00 0.00 62 1009.5
20260505234429 22 115 8.0 25.7 0.00 0.00 0.00 62 1009.7
20260505234317 22 188 8.0 27.4 0.00 0.00 0.00 62 1009.6
20260505234224 22 194 9.7 27.4 0.00 0.00 0.00 62 1009.6
20260505234115 22 128 9.7 27.4 0.00 0.00 0.00 62 1009.7
20260505234022 22 207 9.7 27.4 0.00 0.00 0.00 62 1009.7
20260505233930 22 211 12.9 27.4 0.00 0.00 0.00 61 1009.6
20260505233838 22 184 16.1 27.4 0.00 0.00 0.00 61 1009.7
20260505233724 22 167 17.7 27.4 0.00 0.00 0.00 61 1009.7
20260505233616 22 207 19.3 27.4 0.00 0.00 0.00 61 1009.7
20260505233546 22 196 17.7 27.4 0.00 0.00 0.00 61 1009.7
20260505233320 22 182 14.5 27.4 0.00 0.00 0.00 61 1009.8
20260505233248 22 189 14.5 27.4 0.00 0.00 0.00 61 1009.8
20260505233134 22 213 12.9 27.4 0.00 0.00 0.00 61 1009.9
20260505233020 22 210 16.1 27.4 0.00 0.00 0.00 61 1009.8
20260505232911 22 151 19.3 27.4 0.00 0.00 0.00 61 1009.8
20260505232818 22 184 16.1 25.7 0.00 0.00 0.00 61 1009.8
20260505232725 22 217 14.5 27.4 0.00 0.00 0.00 61 1009.8
20260505232614 22 184 11.3 24.1 0.00 0.00 0.00 61 1009.9
20260505232519 22 197 12.9 24.1 0.00 0.00 0.00 61 1009.9
20260505232411 22 184 14.5 24.1 0.00 0.00 0.00 61 1010.0
20260505232317 22 187 14.5 25.7 0.00 0.00 0.00 61 1010.0
20260505232224 22 203 14.5 25.7 0.00 0.00 0.00 61 1010.0
20260505232112 22 86 14.5 25.7 0.00 0.00 0.00 61 1010.1
20260505232047 22 135 12.9 25.7 0.00 0.00 0.00 61 1010.1
20260505231821 22 166 12.9 25.7 0.00 0.00 0.00 61 1010.1
20260505231730 22 171 12.9 25.7 0.00 0.00 0.00 61 1010.2
20260505231616 22 178 14.5 25.7 0.00 0.00 0.00 60 1010.2
20260505231523 22 192 16.1 25.7 0.00 0.00 0.00 60 1010.2
20260505231410 22 190 14.5 24.1 0.00 0.00 0.00 60 1010.3
20260505231322 22 168 14.5 22.5 0.00 0.00 0.00 60 1010.3
20260505231211 22 157 14.5 25.7 0.00 0.00 0.00 60 1010.4
20260505231118 22 214 17.7 25.7 0.00 0.00 0.00 60 1010.4
20260505231045 23 192 17.7 29.0 0.00 0.00 0.00 60 1010.4
20260505230932 23 183 12.9 29.0 0.00 0.00 0.00 60 1010.4
20260505230818 23 198 12.9 29.0 0.00 0.00 0.00 60 1010.4
20260505230710 23 187 14.5 33.8 0.00 0.00 0.00 60 1010.3
20260505230618 23 170 16.1 33.8 0.00 0.00 0.00 60 1010.4
20260505230547 23 168 14.5 33.8 0.00 0.00 0.00 60 1010.4
20260505230320 23 167 14.5 33.8 0.00 0.00 0.00 60 1010.4
20260505230211 23 189 16.1 33.8 0.00 0.00 0.00 60 1010.3
20260505230119 23 163 16.1 33.8 0.00 0.00 0.00 60 1010.4
20260505230046 23 189 17.7 33.8 0.00 0.00 0.00 60 1010.4
20260505225911 23 169 17.7 33.8 0.00 0.00 0.00 60 1010.2
20260505225819 23 173 16.1 25.7 0.00 0.00 0.00 59 1010.3
20260505225724 23 179 16.1 25.7 0.00 0.00 0.00 59 1010.3
20260505225612 23 192 14.5 22.5 0.00 0.00 0.00 60 1010.2
20260505225523 23 178 14.5 25.7 0.00 0.00 0.00 60 1010.2
20260505225411 23 199 14.5 25.7 0.00 0.00 0.00 60 1010.3
20260505225319 23 207 14.5 25.7 0.00 0.00 0.00 60 1010.3
20260505225228 23 197 9.7 25.7 0.00 0.00 0.00 60 1010.3
20260505225135 23 128 9.7 25.7 0.00 0.00 0.00 60 1010.2
20260505225047 23 181 11.3 25.7 0.00 0.00 0.00 60 1010.2
20260505224820 23 170 16.1 25.7 0.00 0.00 0.00 60 1010.3
20260505224728 23 207 17.7 27.4 0.00 0.00 0.00 60 1010.3
20260505224636 23 176 12.9 25.7 0.00 0.00 0.00 60 1010.3
20260505224542 23 182 14.5 24.1 0.00 0.00 0.00 60 1010.3
20260505224410 23 175 14.5 25.7 0.00 0.00 0.00 60 1010.4
20260505224321 23 204 12.9 24.1 0.00 0.00 0.00 60 1010.4
20260505224249 23 169 12.9 24.1 0.00 0.00 0.00 60 1010.4
20260505224115 23 140 12.9 24.1 0.00 0.00 0.00 60 1010.3
20260505224022 22 192 12.9 24.1 0.00 0.00 0.00 60 1010.3
20260505223949 23 188 12.9 24.1 0.00 0.00 0.00 60 1010.4
20260505223815 22 195 11.3 24.1 0.00 0.00 0.00 60 1010.3
20260505223743 22 174 11.3 24.1 0.00 0.00 0.00 60 1010.3
20260505223613 22 173 12.9 27.4 0.00 0.00 0.00 60 1010.4
20260505223544 22 211 12.9 27.4 0.00 0.00 0.00 60 1010.4
20260505223337 22 209 12.9 27.4 0.00 0.00 0.00 60 1010.6
20260505223225 22 169 12.9 27.4 0.00 0.00 0.00 60 1010.6
20260505223117 23 202 12.9 27.4 0.00 0.00 0.00 60 1010.7
20260505223024 22 193 12.9 27.4 0.00 0.00 0.00 60 1010.7
20260505222911 23 179 14.5 27.4 0.00 0.00 0.00 60 1010.7
20260505222817 23 196 12.9 27.4 0.00 0.00 0.00 60 1010.6
20260505222725 23 166 11.3 25.7 0.00 0.00 0.00 60 1010.6
20260505222632 23 186 12.9 25.7 0.00 0.00 0.00 60 1010.7
20260505222523 23 185 12.9 25.7 0.00 0.00 0.00 60 1010.7
20260505222429 23 197 14.5 25.7 0.00 0.00 0.00 60 1010.7
20260505222337 23 196 12.9 25.7 0.00 0.00 0.00 60 1010.7
20260505222223 23 175 9.7 25.7 0.00 0.00 0.00 60 1010.7
20260505222110 23 185 12.9 25.7 0.00 0.00 0.00 59 1010.7
20260505222044 23 201 14.5 25.7 0.00 0.00 0.00 59 1010.7
20260505221818 23 170 12.9 25.7 0.00 0.00 0.00 60 1010.8
20260505221745 23 182 11.3 25.7 0.00 0.00 0.00 59 1010.8
20260505221611 23 194 9.7 25.7 0.00 0.00 0.00 59 1010.6
20260505221519 23 186 12.9 25.7 0.00 0.00 0.00 59 1010.6
20260505221427 23 186 16.1 25.7 0.00 0.00 0.00 59 1010.6
20260505221318 23 211 12.9 24.1 0.00 0.00 0.00 59 1010.6
20260505221225 23 169 9.7 25.7 0.00 0.00 0.00 59 1010.6
20260505221114 23 157 11.3 20.9 0.00 0.00 0.00 59 1010.6
20260505221041 23 202 12.9 20.9 0.00 0.00 0.00 59 1010.6
20260505220926 23 150 11.3 20.9 0.00 0.00 0.00 59 1010.6
20260505220814 23 196 9.7 20.9 0.00 0.00 0.00 60 1010.6
20260505220725 23 115 9.7 20.9 0.00 0.00 0.00 59 1010.6
20260505220612 23 150 12.9 20.9 0.00 0.00 0.00 59 1010.5
20260505220544 23 190 12.9 20.9 0.00 0.00 0.00 59 1010.5
20260505220318 23 207 11.3 20.9 0.00 0.00 0.00 59 1010.6
20260505220230 23 196 9.7 19.3 0.00 0.00 0.00 59 1010.6
20260505220117 23 186 11.3 19.3 0.00 0.00 0.00 59 1010.6
20260505220045 23 203 9.7 22.5 0.00 0.00 0.00 59 1010.6
20260505215910 23 148 8.0 22.5 0.00 0.00 0.00 59 1010.7
20260505215817 23 166 11.3 22.5 0.00 0.00 0.00 58 1010.7
20260505215725 23 188 12.9 22.5 0.00 0.00 0.00 58 1010.7
20260505215637 23 193 14.5 22.5 0.00 0.00 0.00 58 1010.7
20260505215522 23 192 14.5 22.5 0.00 0.00 0.00 58 1010.7
20260505215410 23 169 14.5 22.5 0.00 0.00 0.00 58 1010.8
20260505215338 23 196 14.5 22.5 0.00 0.00 0.00 58 1010.8
20260505215224 23 174 16.1 22.5 0.00 0.00 0.00 57 1010.8
20260505215111 23 198 14.5 24.1 0.00 0.00 0.00 58 1010.7
20260505215046 23 180 11.3 27.4 0.00 0.00 0.00 58 1010.7
20260505214820 23 223 11.3 27.4 0.00 0.00 0.00 58 1010.8
20260505214748 23 173 9.7 27.4 0.00 0.00 0.00 58 1010.7
20260505214614 23 192 8.0 27.4 0.00 0.00 0.00 57 1010.7
20260505214521 23 175 9.7 30.6 0.00 0.00 0.00 58 1010.7
20260505214432 23 169 14.5 30.6 0.00 0.00 0.00 57 1010.6
20260505214317 23 188 16.1 30.6 0.00 0.00 0.00 57 1010.7
20260505214224 23 180 17.7 30.6 0.00 0.00 0.00 57 1010.7
20260505214112 23 172 19.3 30.6 0.00 0.00 0.00 57 1010.5
20260505214020 23 173 17.7 30.6 0.00 0.00 0.00 57 1010.5
20260505213948 23 164 19.3 30.6 0.00 0.00 0.00 56 1010.5
20260505213817 23 169 17.7 30.6 0.00 0.00 0.00 56 1010.6
20260505213724 23 195 16.1 30.6 0.00 0.00 0.00 56 1010.6
20260505213652 23 182 14.5 29.0 0.00 0.00 0.00 57 1010.5
20260505213602 23 170 14.5 29.0 0.00 0.00 0.00 56 1010.6
20260505213315 23 175 14.5 35.4 0.00 0.00 0.00 56 1010.6
20260505213225 23 200 14.5 35.4 0.00 0.00 0.00 57 1010.6
20260505213113 23 211 16.1 35.4 0.00 0.00 0.00 56 1010.6
20260505213019 23 169 17.7 35.4 0.00 0.00 0.00 56 1010.6
20260505212925 23 190 19.3 35.4 0.00 0.00 0.00 56 1010.6
20260505212813 23 186 16.1 35.4 0.00 0.00 0.00 56 1010.7
20260505212721 23 205 17.7 35.4 0.00 0.00 0.00 56 1010.7
20260505212613 23 184 20.9 35.4 0.00 0.00 0.00 55 1010.7
20260505212521 23 201 20.9 35.4 0.00 0.00 0.00 55 1010.7
20260505212427 23 186 19.3 33.8 0.00 0.00 0.00 56 1010.8
20260505212315 23 196 19.3 30.6 0.00 0.00 0.00 55 1010.6
20260505212223 23 207 20.9 30.6 0.00 0.00 0.00 56 1010.6
20260505212114 23 171 19.3 33.8 0.00 0.00 0.00 56 1010.7
20260505212045 23 208 19.3 33.8 0.00 0.00 0.00 56 1010.7
20260505211840 23 205 14.5 33.8 0.00 0.00 0.00 56 1010.6
20260505211725 23 204 12.9 33.8 0.00 0.00 0.00 56 1010.6
20260505211612 23 167 14.5 33.8 0.00 0.00 0.00 56 1010.7
20260505211523 23 192 14.5 33.8 0.00 0.00 0.00 56 1010.7
20260505211411 23 194 20.9 33.8 0.00 0.00 0.00 55 1010.6
20260505211319 23 196 22.5 33.8 0.00 0.00 0.00 55 1010.6
20260505211226 23 183 20.9 32.2 0.00 0.00 0.00 56 1010.6
20260505211115 23 208 17.7 30.6 0.00 0.00 0.00 56 1010.6
20260505211027 23 183 16.1 30.6 0.00 0.00 0.00 56 1010.6
20260505210913 23 202 19.3 30.6 0.00 0.00 0.00 56 1010.6
20260505210820 23 202 19.3 30.6 0.00 0.00 0.00 56 1010.6
20260505210728 23 188 19.3 32.2 0.00 0.00 0.00 56 1010.6
20260505210616 23 182 16.1 32.2 0.00 0.00 0.00 57 1010.6
20260505210551 23 191 16.1 32.2 0.00 0.00 0.00 57 1010.6
20260505210326 23 159 14.5 32.2 0.00 0.00 0.00 56 1010.5
20260505210213 23 191 16.1 32.2 0.00 0.00 0.00 56 1010.5
20260505210120 23 197 17.7 32.2 0.00 0.00 0.00 55 1010.5
20260505210027 23 169 14.5 32.2 0.00 0.00 0.00 55 1010.6
20260505205919 23 174 12.9 27.4 0.00 0.00 0.00 57 1010.6
20260505205825 23 221 12.9 27.4 0.00 0.00 0.00 56 1010.6
20260505205713 23 195 12.9 27.4 0.00 0.00 0.00 56 1010.5
20260505205620 23 208 14.5 29.0 0.00 0.00 0.00 55 1010.5
20260505205527 23 183 17.7 29.0 0.00 0.00 0.00 55 1010.5
20260505205418 23 207 16.1 29.0 0.00 0.00 0.00 55 1010.5
20260505205346 23 173 14.5 29.0 0.00 0.00 0.00 55 1010.5
20260505205212 23 191 12.9 29.0 0.00 0.00 0.00 55 1010.4
20260505205119 23 185 14.5 29.0 0.00 0.00 0.00 55 1010.4
20260505205050 23 184 16.1 29.0 0.00 0.00 0.00 56 1010.4
20260505204829 22 192 16.1 29.0 0.00 0.00 0.00 56 1010.3
20260505204714 22 179 14.5 29.0 0.00 0.00 0.00 57 1010.2
20260505204623 22 173 16.1 29.0 0.00 0.00 0.00 57 1010.2
20260505204510 22 190 14.5 29.0 0.00 0.00 0.00 57 1010.2
20260505204416 22 176 12.9 29.0 0.00 0.00 0.00 57 1010.3
20260505204325 23 180 11.3 29.0 0.00 0.00 0.00 58 1010.3
20260505204218 23 182 11.3 29.0 0.00 0.00 0.00 57 1010.3
20260505204124 23 148 11.3 29.0 0.00 0.00 0.00 57 1010.3
20260505204012 23 121 9.7 29.0 0.00 0.00 0.00 57 1010.2
20260505203920 23 153 11.3 29.0 0.00 0.00 0.00 57 1010.2
20260505203827 23 134 16.1 29.0 0.00 0.00 0.00 57 1010.2
20260505203720 23 143 16.1 29.0 0.00 0.00 0.00 57 1010.3
20260505203627 23 132 14.5 29.0 0.00 0.00 0.00 59 1010.3
20260505203557 23 123 11.3 29.0 0.00 0.00 0.00 59 1010.2
20260505203311 23 189 14.5 29.0 0.00 0.00 0.00 57 1010.3
20260505203239 23 192 14.5 29.0 0.00 0.00 0.00 58 1010.3
20260505203129 23 195 16.1 29.0 0.00 0.00 0.00 57 1010.3
20260505203036 23 198 16.1 29.0 0.00 0.00 0.00 56 1010.4
20260505202921 23 197 12.9 29.0 0.00 0.00 0.00 56 1010.4
20260505202849 23 238 14.5 29.0 0.00 0.00 0.00 54 1010.3
20260505202735 23 145 14.5 29.0 0.00 0.00 0.00 53 1010.4
20260505202621 23 182 12.9 32.2 0.00 0.00 0.00 54 1010.4
20260505202528 23 154 14.5 32.2 0.00 0.00 0.00 53 1010.3
20260505202420 23 200 17.7 32.2 0.00 0.00 0.00 54 1010.4
20260505202347 23 142 17.7 32.2 0.00 0.00 0.00 53 1010.4
20260505202233 23 122 16.1 25.7 0.00 0.00 0.00 54 1010.4
20260505202140 23 155 16.1 24.1 0.00 0.00 0.00 54 1010.4
20260505202109 23 164 14.5 24.1 0.00 0.00 0.00 53 1010.3
20260505201823 23 209 12.9 24.1 0.00 0.00 0.00 53 1010.3
20260505201714 23 163 12.9 24.1 0.00 0.00 0.00 54 1010.5
20260505201642 23 190 11.3 24.1 0.00 0.00 0.00 53 1010.5
20260505201527 23 138 11.3 24.1 0.00 0.00 0.00 53 1010.5
20260505201434 23 179 12.9 24.1 0.00 0.00 0.00 53 1010.5
20260505201321 23 122 12.9 24.1 0.00 0.00 0.00 54 1010.5
20260505201248 23 145 14.5 24.1 0.00 0.00 0.00 53 1010.5
20260505201120 23 180 14.5 24.1 0.00 0.00 0.00 53 1010.5
20260505201028 23 158 14.5 24.1 0.00 0.00 0.00 54 1010.5
20260505200915 23 148 12.9 19.3 0.00 0.00 0.00 54 1010.5
20260505200822 23 162 11.3 22.5 0.00 0.00 0.00 54 1010.5
20260505200728 23 158 11.3 22.5 0.00 0.00 0.00 54 1010.5
20260505200636 23 176 11.3 22.5 0.00 0.00 0.00 54 1010.5
20260505200549 23 170 11.3 22.5 0.00 0.00 0.00 54 1010.8
20260505200323 23 136 9.7 22.5 0.00 0.00 0.00 55 1010.5
20260505200211 22 182 9.7 22.5 0.00 0.00 0.00 55 1010.5
20260505200117 22 150 9.7 22.5 0.00 0.00 0.00 54 1010.5
20260505200044 22 202 11.3 22.5 0.00 0.00 0.00 54 1010.5
20260505195915 22 153 11.3 22.5 0.00 0.00 0.00 55 1010.6
20260505195822 22 146 9.7 16.1 0.00 0.00 0.00 54 1010.6
20260505195729 22 171 11.3 22.5 0.00 0.00 0.00 54 1010.8
20260505195617 22 147 11.3 22.5 0.00 0.00 0.00 54 1010.8
20260505195544 23 168 12.9 22.5 0.00 0.00 0.00 54 1010.8
20260505195410 22 146 9.7 22.5 0.00 0.00 0.00 54 1010.8
20260505195339 23 169 9.7 22.5 0.00 0.00 0.00 54 1010.7
20260505195228 23 76 12.9 22.5 0.00 0.00 0.00 54 1010.7
20260505195116 23 161 14.5 22.5 0.00 0.00 0.00 53 1010.7
20260505195046 23 171 12.9 22.5 0.00 0.00 0.00 53 1010.7
20260505194819 23 185 9.7 16.1 0.00 0.00 0.00 53 1010.7
20260505194710 23 113 12.9 16.1 0.00 0.00 0.00 54 1010.7
20260505194637 23 156 11.3 16.1 0.00 0.00 0.00 53 1010.7
20260505194543 23 166 9.7 19.3 0.00 0.00 0.00 54 1010.7
20260505194429 23 146 9.7 22.5 0.00 0.00 0.00 53 1010.6
20260505194318 23 170 9.7 22.5 0.00 0.00 0.00 53 1010.7
20260505194226 23 159 9.7 22.5 0.00 0.00 0.00 53 1010.7
20260505194132 23 157 9.7 22.5 0.00 0.00 0.00 53 1010.6
20260505194023 23 148 9.7 24.1 0.00 0.00 0.00 53 1010.6
20260505193911 23 140 9.7 24.1 0.00 0.00 0.00 53 1010.5
20260505193839 23 156 9.7 24.1 0.00 0.00 0.00 53 1010.5
20260505193724 23 192 12.9 24.1 0.00 0.00 0.00 52 1010.5
20260505193612 23 180 11.3 24.1 0.00 0.00 0.00 53 1010.5
20260505193547 23 141 11.3 24.1 0.00 0.00 0.00 52 1010.5
20260505193320 23 161 14.5 24.1 0.00 0.00 0.00 52 1010.6
20260505193228 23 163 16.1 24.1 0.00 0.00 0.00 52 1010.6
20260505193115 23 132 12.9 22.5 0.00 0.00 0.00 53 1010.7
20260505193022 23 198 12.9 22.5 0.00 0.00 0.00 53 1010.7
20260505192915 23 159 11.3 22.5 0.00 0.00 0.00 54 1010.8
20260505192822 23 162 9.7 22.5 0.00 0.00 0.00 53 1010.8
20260505192729 23 190 8.0 22.5 0.00 0.00 0.00 53 1010.8
20260505192617 23 90 9.7 22.5 0.00 0.00 0.00 52 1010.8
20260505192524 23 194 11.3 22.5 0.00 0.00 0.00 52 1010.8
20260505192416 23 163 11.3 24.1 0.00 0.00 0.00 51 1010.8
20260505192323 23 158 9.7 25.7 0.00 0.00 0.00 53 1010.8